Observation data for Stinnett on 12/13/2019      Previous  Date       Current Mesonet Observations  Soil Data  Daily Summary Page  Observations in Plain Language
KST3 130600Z 21003KT 06/M03 A2998 RMK A01 T00611032  RH  051%=      5-min Rain = 0
KST3 130601Z 20003KT 06/M03 A2998 RMK A01 T00601032  RH  052%=      5-min Rain = 0
KST3 130602Z 20004KT 06/M03 A2998 RMK A01 T00601032  RH  052%=      5-min Rain = 0
KST3 130603Z 20003KT 06/M03 A2998 RMK A01 T00601032  RH  052%=      5-min Rain = 0
KST3 130604Z 20003KT 06/M03 A2998 RMK A01 T00601032  RH  052%=      5-min Rain = 0
KST3 130605Z 19003KT 06/M03 A2998 RMK A01 T00601032  RH  052%=      5-min Rain = 0
KST3 130606Z 19004KT 06/M03 A2998 RMK A01 T00601032  RH  052%=      5-min Rain = 0
KST3 130607Z 19004KT 06/M03 A2998 RMK A01 T00601032  RH  052%=      5-min Rain = 0
KST3 130608Z 19004KT 06/M03 A2998 RMK A01 T00601032  RH  052%=      5-min Rain = 0
KST3 130609Z 19004KT 06/M03 A2998 RMK A01 T00611031  RH  052%=      5-min Rain = 0
KST3 130610Z 19004KT 06/M03 A2998 RMK A01 T00611031  RH  051%=      5-min Rain = 0
KST3 130611Z 20004KT 06/M03 A2997 RMK A01 T00611032  RH  052%=      5-min Rain = 0
KST3 130612Z 20004KT 06/M03 A2997 RMK A01 T00601032  RH  052%=      5-min Rain = 0
KST3 130613Z 21004KT 06/M03 A2997 RMK A01 T00601032  RH  052%=      5-min Rain = 0
KST3 130614Z 21004KT 06/M03 A2997 RMK A01 T00601031  RH  052%=      5-min Rain = 0
KST3 130615Z 21005KT 06/M03 A2997 RMK A01 T00591032  RH  052%=      5-min Rain = 0
KST3 130616Z 21005KT 06/M03 A2997 RMK A01 T00591031  RH  052%=      5-min Rain = 0
KST3 130617Z 22005KT 06/M03 A2997 RMK A01 T00591032  RH  052%=      5-min Rain = 0
KST3 130618Z 22005KT 06/M03 A2997 RMK A01 T00591031  RH  052%=      5-min Rain = 0
KST3 130619Z 22005KT 06/M03 A2997 RMK A01 T00591032  RH  052%=      5-min Rain = 0
KST3 130620Z 22005KT 06/M03 A2997 RMK A01 T00581032  RH  052%=      5-min Rain = 0
KST3 130621Z 23005KT 06/M03 A2997 RMK A01 T00561033  RH  053%=      5-min Rain = 0
KST3 130622Z 23005KT 06/M03 A2997 RMK A01 T00551033  RH  053%=      5-min Rain = 0
KST3 130623Z 23004KT 05/M03 A2998 RMK A01 T00541033  RH  054%=      5-min Rain = 0
KST3 130624Z 23004KT 05/M03 A2998 RMK A01 T00531032  RH  054%=      5-min Rain = 0
KST3 130625Z 23004KT 05/M03 A2998 RMK A01 T00521032  RH  055%=      5-min Rain = 0
KST3 130626Z 23004KT 05/M03 A2998 RMK A01 T00521032  RH  055%=      5-min Rain = 0
KST3 130627Z 23004KT 05/M03 A2998 RMK A01 T00511031  RH  055%=      5-min Rain = 0
KST3 130628Z 23004KT 05/M03 A2998 RMK A01 T00521030  RH  055%=      5-min Rain = 0
KST3 130629Z 24004KT 05/M03 A2998 RMK A01 T00541030  RH  055%=      5-min Rain = 0
KST3 130630Z 24004KT 05/M03 A2998 RMK A01 T00541030  RH  054%=      5-min Rain = 0
KST3 130631Z 24004KT 06/M03 A2997 RMK A01 T00551030  RH  054%=      5-min Rain = 0
KST3 130632Z 24004KT 06/M03 A2997 RMK A01 T00551030  RH  054%=      5-min Rain = 0
KST3 130633Z 24004KT 06/M03 A2997 RMK A01 T00551030  RH  054%=      5-min Rain = 0
KST3 130634Z 24004KT 06/M03 A2997 RMK A01 T00551031  RH  054%=      5-min Rain = 0
KST3 130635Z 24005KT 05/M03 A2997 RMK A01 T00541031  RH  054%=      5-min Rain = 0
KST3 130636Z 24005KT 05/M03 A2997 RMK A01 T00521032  RH  055%=      5-min Rain = 0
KST3 130637Z 24005KT 05/M03 A2997 RMK A01 T00511032  RH  055%=      5-min Rain = 0
KST3 130638Z 24006KT 05/M03 A2997 RMK A01 T00481033  RH  056%=      5-min Rain = 0
KST3 130639Z 24006KT 05/M03 A2997 RMK A01 T00451033  RH  057%=      5-min Rain = 0
KST3 130640Z 24006KT 04/M03 A2997 RMK A01 T00421034  RH  058%=      5-min Rain = 0
KST3 130641Z 24006KT 04/M03 A2997 RMK A01 T00401033  RH  059%=      5-min Rain = 0
KST3 130642Z 24006KT 04/M03 A2997 RMK A01 T00411032  RH  059%=      5-min Rain = 0
KST3 130643Z 23006KT 04/M03 A2997 RMK A01 T00411031  RH  059%=      5-min Rain = 0
KST3 130644Z 23006KT 04/M03 A2997 RMK A01 T00411031  RH  059%=      5-min Rain = 0
KST3 130645Z 23006KT 04/M03 A2997 RMK A01 T00421030  RH  059%=      5-min Rain = 0
KST3 130646Z 23006KT 04/M03 A2997 RMK A01 T00411031  RH  059%=      5-min Rain = 0
KST3 130647Z 23005KT 04/M03 A2997 RMK A01 T00411031  RH  060%=      5-min Rain = 0
KST3 130648Z 23005KT 04/M03 A2997 RMK A01 T00411030  RH  060%=      5-min Rain = 0
KST3 130649Z 22005KT 04/M03 A2997 RMK A01 T00411030  RH  060%=      5-min Rain = 0
KST3 130650Z 22005KT 04/M03 A2997 RMK A01 T00411030  RH  060%=      5-min Rain = 0
KST3 130651Z 22005KT 04/M03 A2996 RMK A01 T00411031  RH  060%=      5-min Rain = 0
KST3 130652Z 22005KT 04/M03 A2996 RMK A01 T00411030  RH  060%=      5-min Rain = 0
KST3 130653Z 22005KT 04/M03 A2996 RMK A01 T00411030  RH  059%=      5-min Rain = 0
KST3 130654Z 22005KT 04/M03 A2996 RMK A01 T00421030  RH  059%=      5-min Rain = 0
KST3 130655Z 22005KT 04/M03 A2996 RMK A01 T00431030  RH  059%=      5-min Rain = 0
KST3 130656Z 22005KT 04/M03 A2996 RMK A01 T00431030  RH  059%=      5-min Rain = 0
KST3 130657Z 22005KT 04/M03 A2996 RMK A01 T00441030  RH  059%=      5-min Rain = 0
KST3 130658Z 22005KT 04/M03 A2996 RMK A01 T00441030  RH  058%=      5-min Rain = 0
KST3 130659Z 22004KT 04/M03 A2996 RMK A01 T00441031  RH  058%=      5-min Rain = 0
KST3 130700Z 22004KT 05/M03 A2996 RMK A01 T00461030  RH  058%=      5-min Rain = 0
KST3 130701Z 22004KT 05/M03 A2996 RMK A01 T00461030  RH  058%=      5-min Rain = 0
KST3 130702Z 22003KT 05/M03 A2996 RMK A01 T00471030  RH  058%=      5-min Rain = 0
KST3 130703Z 23004KT 05/M03 A2996 RMK A01 T00481030  RH  057%=      5-min Rain = 0
KST3 130704Z 23004KT 05/M03 A2996 RMK A01 T00491030  RH  057%=      5-min Rain = 0
KST3 130705Z 23004KT 05/M03 A2996 RMK A01 T00501030  RH  056%=      5-min Rain = 0
KST3 130706Z 23004KT 05/M03 A2996 RMK A01 T00501030  RH  056%=      5-min Rain = 0
KST3 130707Z 23004KT 05/M03 A2996 RMK A01 T00501030  RH  056%=      5-min Rain = 0
KST3 130708Z 23004KT 05/M03 A2996 RMK A01 T00501030  RH  056%=      5-min Rain = 0
KST3 130709Z 23004KT 05/M03 A2996 RMK A01 T00491030  RH  057%=      5-min Rain = 0
KST3 130710Z 23005KT 05/M03 A2996 RMK A01 T00491030  RH  057%=      5-min Rain = 0
KST3 130711Z 23005KT 05/M03 A2996 RMK A01 T00481030  RH  057%=      5-min Rain = 0
KST3 130712Z 23005KT 05/M03 A2996 RMK A01 T00471030  RH  057%=      5-min Rain = 0
KST3 130713Z 24005KT 05/M03 A2996 RMK A01 T00471030  RH  057%=      5-min Rain = 0
KST3 130714Z 24004KT 05/M03 A2996 RMK A01 T00471030  RH  058%=      5-min Rain = 0
KST3 130715Z 24005KT 05/M03 A2996 RMK A01 T00461030  RH  058%=      5-min Rain = 0
KST3 130716Z 24005KT 05/M03 A2996 RMK A01 T00451030  RH  058%=      5-min Rain = 0
KST3 130717Z 25005KT 04/M03 A2996 RMK A01 T00431031  RH  059%=      5-min Rain = 0
KST3 130718Z 25005KT 04/M03 A2996 RMK A01 T00421030  RH  059%=      5-min Rain = 0
KST3 130719Z 25005KT 04/M03 A2995 RMK A01 T00411030  RH  060%=      5-min Rain = 0
KST3 130720Z 25004KT 04/M03 A2995 RMK A01 T00391031  RH  060%=      5-min Rain = 0
KST3 130721Z 26005KT 04/M03 A2996 RMK A01 T00391030  RH  061%=      5-min Rain = 0
KST3 130722Z 26004KT 04/M03 A2996 RMK A01 T00391030  RH  061%=      5-min Rain = 0
KST3 130723Z 26005KT 04/M03 A2996 RMK A01 T00391029  RH  061%=      5-min Rain = 0
KST3 130724Z 26005KT 04/M03 A2996 RMK A01 T00401029  RH  061%=      5-min Rain = 0
KST3 130725Z 26004KT 04/M03 A2995 RMK A01 T00401029  RH  061%=      5-min Rain = 0
KST3 130726Z 26004KT 04/M03 A2995 RMK A01 T00401030  RH  060%=      5-min Rain = 0
KST3 130727Z 26004KT 04/M03 A2995 RMK A01 T00401030  RH  060%=      5-min Rain = 0
KST3 130728Z 26005KT 04/M03 A2995 RMK A01 T00401030  RH  060%=      5-min Rain = 0
KST3 130729Z 27005KT 04/M03 A2995 RMK A01 T00401030  RH  060%=      5-min Rain = 0
KST3 130730Z 27005KT 04/M03 A2995 RMK A01 T00391030  RH  061%=      5-min Rain = 0
KST3 130731Z 27005KT 04/M03 A2995 RMK A01 T00381030  RH  061%=      5-min Rain = 0
KST3 130732Z 27005KT 04/M03 A2995 RMK A01 T00391031  RH  061%=      5-min Rain = 0
KST3 130733Z 26005KT 04/M03 A2995 RMK A01 T00391031  RH  060%=      5-min Rain = 0
KST3 130734Z 26006KT 04/M03 A2995 RMK A01 T00381032  RH  060%=      5-min Rain = 0
KST3 130735Z 26005KT 04/M03 A2995 RMK A01 T00371032  RH  061%=      5-min Rain = 0
KST3 130736Z 26006KT 04/M03 A2995 RMK A01 T00371032  RH  061%=      5-min Rain = 0
KST3 130737Z 26006KT 04/M03 A2995 RMK A01 T00361032  RH  061%=      5-min Rain = 0
KST3 130738Z 26006KT 04/M03 A2995 RMK A01 T00351032  RH  061%=      5-min Rain = 0
KST3 130739Z 26006KT 03/M03 A2995 RMK A01 T00341032  RH  062%=      5-min Rain = 0
KST3 130740Z 26006KT 03/M03 A2995 RMK A01 T00341032  RH  062%=      5-min Rain = 0
KST3 130741Z 26006KT 04/M03 A2994 RMK A01 T00351032  RH  062%=      5-min Rain = 0
KST3 130742Z 26006KT 04/M03 A2994 RMK A01 T00351032  RH  062%=      5-min Rain = 0
KST3 130743Z 26006KT 04/M03 A2994 RMK A01 T00351032  RH  061%=      5-min Rain = 0
KST3 130744Z 26005KT 04/M03 A2994 RMK A01 T00351032  RH  061%=      5-min Rain = 0
KST3 130745Z 26005KT 04/M03 A2994 RMK A01 T00351032  RH  061%=      5-min Rain = 0
KST3 130746Z 26006KT 04/M03 A2994 RMK A01 T00351032  RH  062%=      5-min Rain = 0
KST3 130747Z 25006KT 04/M03 A2994 RMK A01 T00351032  RH  062%=      5-min Rain = 0
KST3 130748Z 25006KT 04/M03 A2994 RMK A01 T00351032  RH  062%=      5-min Rain = 0
KST3 130749Z 25006KT 04/M03 A2994 RMK A01 T00361032  RH  061%=      5-min Rain = 0
KST3 130750Z 25007KT 04/M03 A2994 RMK A01 T00371032  RH  061%=      5-min Rain = 0
KST3 130751Z 25007KT 04/M03 A2994 RMK A01 T00371032  RH  061%=      5-min Rain = 0
KST3 130752Z 25007KT 04/M03 A2994 RMK A01 T00371031  RH  061%=      5-min Rain = 0
KST3 130753Z 25007KT 04/M03 A2994 RMK A01 T00361031  RH  061%=      5-min Rain = 0
KST3 130754Z 25007KT 03/M03 A2994 RMK A01 T00341032  RH  062%=      5-min Rain = 0
KST3 130755Z 25008KT 03/M03 A2994 RMK A01 T00321032  RH  063%=      5-min Rain = 0
KST3 130756Z 25008KT 03/M03 A2994 RMK A01 T00321032  RH  063%=      5-min Rain = 0
KST3 130757Z 25007KT 03/M03 A2994 RMK A01 T00311032  RH  063%=      5-min Rain = 0
KST3 130758Z 26007KT 03/M03 A2994 RMK A01 T00311031  RH  064%=      5-min Rain = 0
KST3 130759Z 26007KT 03/M03 A2994 RMK A01 T00311031  RH  064%=      5-min Rain = 0
KST3 130800Z 25007KT 03/M03 A2994 RMK A01 T00321031  RH  063%=      5-min Rain = 0
KST3 130801Z 25008KT 03/M03 A2995 RMK A01 T00321032  RH  063%=      5-min Rain = 0
KST3 130802Z 25008KT 03/M03 A2995 RMK A01 T00321032  RH  063%=      5-min Rain = 0
KST3 130803Z 25008KT 03/M03 A2995 RMK A01 T00321032  RH  063%=      5-min Rain = 0
KST3 130804Z 25008KT 03/M03 A2995 RMK A01 T00321031  RH  063%=      5-min Rain = 0
KST3 130805Z 25008KT 03/M03 A2994 RMK A01 T00321031  RH  063%=      5-min Rain = 0
KST3 130806Z 25008KT 03/M03 A2994 RMK A01 T00321031  RH  063%=      5-min Rain = 0
KST3 130807Z 25009KT 03/M03 A2994 RMK A01 T00311032  RH  063%=      5-min Rain = 0
KST3 130808Z 26009KT 03/M03 A2994 RMK A01 T00301032  RH  064%=      5-min Rain = 0
KST3 130809Z 25010KT 03/M03 A2994 RMK A01 T00281033  RH  064%=      5-min Rain = 0
KST3 130810Z 25010KT 03/M03 A2994 RMK A01 T00271032  RH  065%=      5-min Rain = 0
KST3 130811Z 25010KT 03/M03 A2994 RMK A01 T00261031  RH  066%=      5-min Rain = 0
KST3 130812Z 25010KT 03/M03 A2994 RMK A01 T00261031  RH  066%=      5-min Rain = 0
KST3 130813Z 25010KT 03/M03 A2994 RMK A01 T00261031  RH  066%=      5-min Rain = 0
KST3 130814Z 25010KT 03/M03 A2994 RMK A01 T00261031  RH  066%=      5-min Rain = 0
KST3 130815Z 25010KT 03/M03 A2994 RMK A01 T00251031  RH  067%=      5-min Rain = 0
KST3 130816Z 25009KT 03/M03 A2994 RMK A01 T00251031  RH  067%=      5-min Rain = 0
KST3 130817Z 25009KT 03/M03 A2994 RMK A01 T00251031  RH  067%=      5-min Rain = 0
KST3 130818Z 25009KT 02/M03 A2994 RMK A01 T00241031  RH  067%=      5-min Rain = 0
KST3 130819Z 25008KT 03/M03 A2994 RMK A01 T00251031  RH  067%=      5-min Rain = 0
KST3 130820Z 25008KT 02/M03 A2994 RMK A01 T00241031  RH  067%=      5-min Rain = 0
KST3 130821Z 25008KT 02/M03 A2994 RMK A01 T00241031  RH  067%=      5-min Rain = 0
KST3 130822Z 25008KT 03/M03 A2994 RMK A01 T00251032  RH  066%=      5-min Rain = 0
KST3 130823Z 25008KT 03/M03 A2994 RMK A01 T00251032  RH  066%=      5-min Rain = 0
KST3 130824Z 25009KT 03/M03 A2994 RMK A01 T00261032  RH  065%=      5-min Rain = 0
KST3 130825Z 25009KT 03/M03 A2994 RMK A01 T00261033  RH  065%=      5-min Rain = 0
KST3 130826Z 25009KT 02/M03 A2994 RMK A01 T00241034  RH  066%=      5-min Rain = 0
KST3 130827Z 25009KT 02/M03 A2994 RMK A01 T00231034  RH  066%=      5-min Rain = 0
KST3 130828Z 25009KT 02/M03 A2994 RMK A01 T00231033  RH  066%=      5-min Rain = 0
KST3 130829Z 25009KT 02/M03 A2994 RMK A01 T00231033  RH  066%=      5-min Rain = 0
KST3 130830Z 25009KT 02/M03 A2994 RMK A01 T00221034  RH  067%=      5-min Rain = 0
KST3 130831Z 25009KT 02/M03 A2994 RMK A01 T00211034  RH  067%=      5-min Rain = 0
KST3 130832Z 25009KT 02/M03 A2994 RMK A01 T00201034  RH  067%=      5-min Rain = 0
KST3 130833Z 25009KT 02/M03 A2994 RMK A01 T00191034  RH  068%=      5-min Rain = 0
KST3 130834Z 25009KT 02/M03 A2994 RMK A01 T00181034  RH  069%=      5-min Rain = 0
KST3 130835Z 25009KT 02/M03 A2994 RMK A01 T00181033  RH  069%=      5-min Rain = 0
KST3 130836Z 25008KT 02/M03 A2993 RMK A01 T00191033  RH  068%=      5-min Rain = 0
KST3 130837Z 25009KT 02/M03 A2993 RMK A01 T00211033  RH  068%=      5-min Rain = 0
KST3 130838Z 25009KT 02/M03 A2993 RMK A01 T00211033  RH  067%=      5-min Rain = 0
KST3 130839Z 25009KT 02/M03 A2993 RMK A01 T00201034  RH  067%=      5-min Rain = 0
KST3 130840Z 25009KT 02/M04 A2993 RMK A01 T00191035  RH  068%=      5-min Rain = 0
KST3 130841Z 25009KT 02/M04 A2993 RMK A01 T00181035  RH  068%=      5-min Rain = 0
KST3 130842Z 25009KT 02/M04 A2993 RMK A01 T00161035  RH  069%=      5-min Rain = 0
KST3 130843Z 25009KT 02/M04 A2993 RMK A01 T00151035  RH  069%=      5-min Rain = 0
KST3 130844Z 25009KT 02/M04 A2993 RMK A01 T00151035  RH  070%=      5-min Rain = 0
KST3 130845Z 26009KT 02/M03 A2993 RMK A01 T00151034  RH  070%=      5-min Rain = 0
KST3 130846Z 26009KT 01/M04 A2993 RMK A01 T00141035  RH  070%=      5-min Rain = 0
KST3 130847Z 26009KT 01/M04 A2993 RMK A01 T00141035  RH  070%=      5-min Rain = 0
KST3 130848Z 26009KT 01/M04 A2993 RMK A01 T00141035  RH  070%=      5-min Rain = 0
KST3 130849Z 26009KT 01/M03 A2993 RMK A01 T00141034  RH  070%=      5-min Rain = 0
KST3 130850Z 26009KT 01/M03 A2993 RMK A01 T00141034  RH  070%=      5-min Rain = 0
KST3 130851Z 26009KT 02/M03 A2993 RMK A01 T00151034  RH  070%=      5-min Rain = 0
KST3 130852Z 26008KT 02/M03 A2993 RMK A01 T00161034  RH  069%=      5-min Rain = 0
KST3 130853Z 26008KT 02/M03 A2993 RMK A01 T00171034  RH  069%=      5-min Rain = 0
KST3 130854Z 26008KT 02/M04 A2993 RMK A01 T00171035  RH  069%=      5-min Rain = 0
KST3 130855Z 26008KT 02/M04 A2993 RMK A01 T00171035  RH  068%=      5-min Rain = 0
KST3 130856Z 26008KT 02/M04 A2993 RMK A01 T00171035  RH  068%=      5-min Rain = 0
KST3 130857Z 26008KT 02/M04 A2993 RMK A01 T00171036  RH  068%=      5-min Rain = 0
KST3 130858Z 26007KT 02/M04 A2993 RMK A01 T00171036  RH  068%=      5-min Rain = 0
KST3 130859Z 26007KT 02/M04 A2992 RMK A01 T00161037  RH  068%=      5-min Rain = 0
KST3 130900Z 27007KT 02/M04 A2992 RMK A01 T00151037  RH  068%=      5-min Rain = 0
KST3 130901Z 27007KT 02/M04 A2992 RMK A01 T00151037  RH  068%=      5-min Rain = 0
KST3 130902Z 27008KT 01/M04 A2992 RMK A01 T00141038  RH  069%=      5-min Rain = 0
KST3 130903Z 27008KT 01/M04 A2992 RMK A01 T00131037  RH  069%=      5-min Rain = 0
KST3 130904Z 27008KT 01/M04 A2992 RMK A01 T00121037  RH  070%=      5-min Rain = 0
KST3 130905Z 27008KT 01/M04 A2992 RMK A01 T00121037  RH  070%=      5-min Rain = 0
KST3 130906Z 27008KT 01/M04 A2992 RMK A01 T00121037  RH  070%=      5-min Rain = 0
KST3 130907Z 27008KT 01/M04 A2992 RMK A01 T00121037  RH  070%=      5-min Rain = 0
KST3 130908Z 27008KT 01/M04 A2992 RMK A01 T00111037  RH  070%=      5-min Rain = 0
KST3 130909Z 27008KT 01/M04 A2992 RMK A01 T00101037  RH  071%=      5-min Rain = 0
KST3 130910Z 27008KT 01/M04 A2992 RMK A01 T00091038  RH  071%=      5-min Rain = 0
KST3 130911Z 27008KT 01/M04 A2992 RMK A01 T00091037  RH  071%=      5-min Rain = 0
KST3 130912Z 27008KT 01/M04 A2992 RMK A01 T00081037  RH  071%=      5-min Rain = 0
KST3 130913Z 27009KT 01/M04 A2992 RMK A01 T00081037  RH  072%=      5-min Rain = 0
KST3 130914Z 27009KT 01/M04 A2992 RMK A01 T00081037  RH  072%=      5-min Rain = 0
KST3 130915Z 27009KT 01/M04 A2992 RMK A01 T00081037  RH  072%=      5-min Rain = 0
KST3 130916Z 27009KT 01/M04 A2992 RMK A01 T00081037  RH  072%=      5-min Rain = 0
KST3 130917Z 27009KT 01/M04 A2992 RMK A01 T00081037  RH  072%=      5-min Rain = 0
KST3 130918Z 27009KT 01/M04 A2992 RMK A01 T00091037  RH  072%=      5-min Rain = 0
KST3 130919Z 27008KT 01/M04 A2992 RMK A01 T00081037  RH  072%=      5-min Rain = 0
KST3 130920Z 27008KT 01/M04 A2992 RMK A01 T00081037  RH  072%=      5-min Rain = 0
KST3 130926Z 26008KT 01/M04 A2992 RMK A01 T00051040  RH  072%=      5-min Rain = 0
KST3 130927Z 26008KT 00/M04 A2992 RMK A01 T00041040  RH  072%=      5-min Rain = 0
KST3 130928Z 26008KT 00/M04 A2992 RMK A01 T00041040  RH  072%=      5-min Rain = 0
KST3 130929Z 26008KT 00/M04 A2992 RMK A01 T00031041  RH  072%=      5-min Rain = 0
KST3 130930Z 26009KT 00/M04 A2992 RMK A01 T00021041  RH  073%=      5-min Rain = 0
KST3 130931Z 26009KT 00/M04 A2992 RMK A01 T00011041  RH  073%=      5-min Rain = 0
KST3 130932Z 26009KT 00/M04 A2992 RMK A01 T00011042  RH  073%=      5-min Rain = 0
KST3 130933Z 25008KT 00/04 A2992 RMK A01 T00-00-42  RH  074%=      5-min Rain = 0
KST3 130934Z 25008KT M00/M04 A2992 RMK A01 T10011042  RH  074%=      5-min Rain = 0
KST3 130935Z 26008KT M00/M04 A2992 RMK A01 T10011042  RH  074%=      5-min Rain = 0
KST3 130936Z 26008KT M00/M04 A2992 RMK A01 T10021042  RH  074%=      5-min Rain = 0
KST3 130937Z 26008KT M00/M04 A2992 RMK A01 T10021042  RH  075%=      5-min Rain = 0
KST3 130938Z 26008KT M00/M04 A2992 RMK A01 T10031042  RH  075%=      5-min Rain = 0
KST3 130939Z 26008KT M00/M04 A2992 RMK A01 T10031042  RH  075%=      5-min Rain = 0
KST3 130940Z 26009KT M00/M04 A2992 RMK A01 T10021042  RH  075%=      5-min Rain = 0
KST3 130941Z 26009KT M00/M04 A2992 RMK A01 T10021042  RH  075%=      5-min Rain = 0
KST3 130942Z 26009KT M00/M04 A2992 RMK A01 T10021042  RH  075%=      5-min Rain = 0
KST3 130943Z 26009KT M00/M04 A2992 RMK A01 T10031041  RH  075%=      5-min Rain = 0
KST3 130944Z 26009KT M00/M04 A2992 RMK A01 T10021041  RH  075%=      5-min Rain = 0
KST3 130945Z 26010KT M00/M04 A2992 RMK A01 T10021041  RH  075%=      5-min Rain = 0
KST3 130946Z 26010KT M00/M04 A2992 RMK A01 T10021041  RH  075%=      5-min Rain = 0
KST3 130947Z 26010KT M00/M04 A2992 RMK A01 T10021041  RH  075%=      5-min Rain = 0
KST3 130948Z 26011KT M00/M04 A2992 RMK A01 T10021041  RH  075%=      5-min Rain = 0
KST3 130949Z 26011KT M00/M04 A2992 RMK A01 T10031041  RH  075%=      5-min Rain = 0
KST3 130950Z 26011KT M00/M04 A2992 RMK A01 T10031041  RH  076%=      5-min Rain = 0
KST3 130951Z 26011KT M00/M04 A2992 RMK A01 T10041041  RH  076%=      5-min Rain = 0
KST3 130952Z 26011KT M01/M04 A2992 RMK A01 T10051041  RH  076%=      5-min Rain = 0
KST3 130953Z 26011KT M01/M04 A2992 RMK A01 T10051041  RH  077%=      5-min Rain = 0
KST3 130954Z 26010KT M01/M04 A2992 RMK A01 T10061041  RH  077%=      5-min Rain = 0
KST3 130955Z 26011KT M01/M04 A2992 RMK A01 T10061041  RH  077%=      5-min Rain = 0
KST3 130956Z 26011KT M01/M04 A2991 RMK A01 T10061041  RH  077%=      5-min Rain = 0
KST3 130957Z 26010KT M01/M04 A2991 RMK A01 T10061042  RH  077%=      5-min Rain = 0
KST3 130958Z 26011KT M01/M04 A2991 RMK A01 T10061042  RH  077%=      5-min Rain = 0
KST3 130959Z 26011KT M01/M04 A2991 RMK A01 T10071042  RH  077%=      5-min Rain = 0
KST3 131000Z 26011KT M01/M04 A2991 RMK A01 T10081042  RH  077%=      5-min Rain = 0
KST3 131001Z 26012KT M01/M04 A2991 RMK A01 T10091042  RH  078%=      5-min Rain = 0
KST3 131002Z 26012KT M01/M04 A2991 RMK A01 T10091042  RH  078%=      5-min Rain = 0
KST3 131003Z 26011KT M01/M04 A2991 RMK A01 T10081041  RH  079%=      5-min Rain = 0
KST3 131004Z 26012KT M01/M04 A2991 RMK A01 T10081041  RH  078%=      5-min Rain = 0
KST3 131005Z 26012KT M01/M04 A2991 RMK A01 T10081041  RH  079%=      5-min Rain = 0
KST3 131006Z 26013KT M01/M04 A2991 RMK A01 T10081041  RH  079%=      5-min Rain = 0
KST3 131007Z 26013KT M01/M04 A2991 RMK A01 T10081040  RH  079%=      5-min Rain = 0
KST3 131008Z 26012KT M01/M04 A2991 RMK A01 T10071040  RH  078%=      5-min Rain = 0
KST3 131009Z 26012KT M01/M04 A2991 RMK A01 T10071041  RH  078%=      5-min Rain = 0
KST3 131010Z 26012KT M01/M04 A2991 RMK A01 T10061040  RH  078%=      5-min Rain = 0
KST3 131011Z 26013KT M01/M04 A2991 RMK A01 T10061040  RH  078%=      5-min Rain = 0
KST3 131012Z 26012KT M01/M04 A2991 RMK A01 T10051040  RH  078%=      5-min Rain = 0
KST3 131013Z 26012KT M01/M04 A2991 RMK A01 T10051040  RH  077%=      5-min Rain = 0
KST3 131014Z 26013KT M01/M04 A2991 RMK A01 T10051040  RH  077%=      5-min Rain = 0
KST3 131015Z 26013KT M01/M04 A2991 RMK A01 T10051040  RH  077%=      5-min Rain = 0
KST3 131016Z 26013KT M01/M04 A2991 RMK A01 T10051040  RH  077%=      5-min Rain = 0
KST3 131017Z 26013KT M01/M04 A2991 RMK A01 T10051040  RH  077%=      5-min Rain = 0
KST3 131018Z 27013KT M01/M04 A2991 RMK A01 T10051040  RH  077%=      5-min Rain = 0
KST3 131019Z 27013KT M01/M04 A2991 RMK A01 T10051040  RH  077%=      5-min Rain = 0
KST3 131020Z 27013KT M01/M04 A2991 RMK A01 T10051040  RH  077%=      5-min Rain = 0
KST3 131021Z 27012KT M00/M04 A2991 RMK A01 T10031039  RH  077%=      5-min Rain = 0
KST3 131022Z 27012KT M00/M04 A2991 RMK A01 T10021039  RH  076%=      5-min Rain = 0
KST3 131023Z 27013KT M00/M04 A2991 RMK A01 T10021040  RH  076%=      5-min Rain = 0
KST3 131024Z 27013KT M00/M04 A2991 RMK A01 T10021040  RH  076%=      5-min Rain = 0
KST3 131025Z 26013KT M00/M04 A2991 RMK A01 T10031040  RH  076%=      5-min Rain = 0
KST3 131026Z 26013KT M00/M04 A2991 RMK A01 T10031040  RH  076%=      5-min Rain = 0
KST3 131027Z 26013KT M00/M04 A2991 RMK A01 T10031039  RH  076%=      5-min Rain = 0
KST3 131028Z 26012KT M00/M04 A2991 RMK A01 T10031039  RH  076%=      5-min Rain = 0
KST3 131029Z 26013KT M00/M04 A2991 RMK A01 T10031039  RH  077%=      5-min Rain = 0
KST3 131030Z 26013KT M00/M04 A2991 RMK A01 T10031039  RH  077%=      5-min Rain = 0
KST3 131031Z 26013KT M00/M04 A2991 RMK A01 T10031039  RH  077%=      5-min Rain = 0
KST3 131032Z 26013KT M00/M04 A2991 RMK A01 T10031039  RH  077%=      5-min Rain = 0
KST3 131033Z 26013KT M00/M04 A2991 RMK A01 T10031039  RH  076%=      5-min Rain = 0
KST3 131034Z 26013KT M00/M04 A299 RMK A01 T10021039  RH  076%=      5-min Rain = 0
KST3 131035Z 26013KT M00/M04 A299 RMK A01 T10011039  RH  076%=      5-min Rain = 0
KST3 131036Z 26013KT M00/M04 A299 RMK A01 T10011039  RH  075%=      5-min Rain = 0
KST3 131037Z 26013KT M00/M04 A299 RMK A01 T10011039  RH  075%=      5-min Rain = 0
KST3 131038Z 26014KT M00/M04 A299 RMK A01 T10011039  RH  075%=      5-min Rain = 0
KST3 131039Z 26014KT M00/M04 A299 RMK A01 T10011039  RH  076%=      5-min Rain = 0
KST3 131040Z 26014KT 00/M04 A299 RMK A01 T00011037  RH  075%=      5-min Rain = 0
KST3 131041Z 26013KT 00/M04 A299 RMK A01 T00041037  RH  074%=      5-min Rain = 0
KST3 131042Z 26012KT 00/M04 A299 RMK A01 T00041037  RH  074%=      5-min Rain = 0
KST3 131043Z 26012KT 00/M04 A299 RMK A01 T00021039  RH  074%=      5-min Rain = 0
KST3 131044Z 26013KT 00/M04 A299 RMK A01 T00011039  RH  074%=      5-min Rain = 0
KST3 131045Z 25014KT 00/M04 A299 RMK A01 T00021038  RH  074%=      5-min Rain = 0
KST3 131046Z 25012KT 01/M04 A299 RMK A01 T00051037  RH  074%=      5-min Rain = 0
KST3 131047Z 26012KT 01/M04 A299 RMK A01 T00061037  RH  073%=      5-min Rain = 0
KST3 131048Z 27011KT 01/M04 A299 RMK A01 T00061037  RH  073%=      5-min Rain = 0
KST3 131049Z 26012KT 00/M04 A299 RMK A01 T00041038  RH  073%=      5-min Rain = 0
KST3 131050Z 26013KT 00/M04 A2989 RMK A01 T00011040  RH  074%=      5-min Rain = 0
KST3 131051Z 26012KT 00/04 A299 RMK A01 T00-00-39  RH  075%=      5-min Rain = 0
KST3 131052Z 27012KT M00/M04 A299 RMK A01 T10011039  RH  076%=      5-min Rain = 0
KST3 131053Z 26012KT M00/M04 A2989 RMK A01 T10021039  RH  076%=      5-min Rain = 0
KST3 131054Z 26011KT M00/M04 A2989 RMK A01 T10031040  RH  076%=      5-min Rain = 0
KST3 131055Z 27012KT M00/M04 A2989 RMK A01 T10031039  RH  076%=      5-min Rain = 0
KST3 131056Z 27012KT M00/M04 A2989 RMK A01 T10031039  RH  077%=      5-min Rain = 0
KST3 131057Z 27012KT M00/M04 A2989 RMK A01 T10031039  RH  077%=      5-min Rain = 0
KST3 131058Z 27013KT M00/M04 A2989 RMK A01 T10031039  RH  076%=      5-min Rain = 0
KST3 131059Z 26013KT M00/M04 A2989 RMK A01 T10021039  RH  076%=      5-min Rain = 0
KST3 131100Z 27012KT 00/04 A2989 RMK A01 T00000-38  RH  076%=      5-min Rain = 0
KST3 131101Z 27012KT 00/M04 A2989 RMK A01 T00011038  RH  075%=      5-min Rain = 0
KST3 131102Z 27012KT 00/M04 A2989 RMK A01 T00021039  RH  074%=      5-min Rain = 0
KST3 131103Z 26013KT 00/M04 A2989 RMK A01 T00021038  RH  074%=      5-min Rain = 0
KST3 131104Z 26013KT 00/M04 A2989 RMK A01 T00021039  RH  074%=      5-min Rain = 0
KST3 131105Z 26012KT 00/M04 A2989 RMK A01 T00021039  RH  074%=      5-min Rain = 0
KST3 131106Z 26012KT 00/M04 A2989 RMK A01 T00011040  RH  074%=      5-min Rain = 0
KST3 131107Z 26013KT M00/M04 A299 RMK A01 T10011041  RH  075%=      5-min Rain = 0
KST3 131108Z 26013KT M00/M04 A299 RMK A01 T10031041  RH  076%=      5-min Rain = 0
KST3 131109Z 26013KT M00/M04 A299 RMK A01 T10041041  RH  076%=      5-min Rain = 0
KST3 131110Z 26012KT M00/M04 A299 RMK A01 T10041040  RH  077%=      5-min Rain = 0
KST3 131111Z 26012KT M01/M04 A299 RMK A01 T10051040  RH  077%=      5-min Rain = 0
KST3 131112Z 26012KT M01/M04 A299 RMK A01 T10051040  RH  077%=      5-min Rain = 0
KST3 131113Z 26012KT M01/M04 A299 RMK A01 T10051040  RH  077%=      5-min Rain = 0
KST3 131114Z 26012KT M00/M04 A2989 RMK A01 T10041039  RH  077%=      5-min Rain = 0
KST3 131115Z 26013KT M00/M04 A2989 RMK A01 T10031039  RH  077%=      5-min Rain = 0
KST3 131116Z 26013KT M00/M04 A2989 RMK A01 T10031040  RH  076%=      5-min Rain = 0
KST3 131117Z 26013KT M00/M04 A2989 RMK A01 T10031040  RH  076%=      5-min Rain = 0
KST3 131118Z 26012KT M00/M04 A2989 RMK A01 T10021039  RH  076%=      5-min Rain = 0
KST3 131119Z 25012KT M00/M04 A2989 RMK A01 T10011039  RH  075%=      5-min Rain = 0
KST3 131120Z 25012KT 00/04 A2989 RMK A01 T00000-39  RH  075%=      5-min Rain = 0
KST3 131121Z 25012KT 00/04 A2989 RMK A01 T00000-39  RH  075%=      5-min Rain = 0
KST3 131122Z 25012KT 00/04 A2989 RMK A01 T00000-39  RH  075%=      5-min Rain = 0
KST3 131123Z 25011KT M00/M04 A2989 RMK A01 T10011040  RH  075%=      5-min Rain = 0
KST3 131124Z 25011KT M00/M04 A2989 RMK A01 T10011040  RH  075%=      5-min Rain = 0
KST3 131125Z 25011KT M00/M04 A2989 RMK A01 T10011040  RH  075%=      5-min Rain = 0
KST3 131126Z 25011KT M00/M04 A2989 RMK A01 T10021040  RH  076%=      5-min Rain = 0
KST3 131127Z 25011KT M00/M04 A2989 RMK A01 T10021039  RH  076%=      5-min Rain = 0
KST3 131128Z 25011KT M00/M04 A2989 RMK A01 T10021039  RH  076%=      5-min Rain = 0
KST3 131129Z 25011KT M00/M04 A2989 RMK A01 T10021039  RH  076%=      5-min Rain = 0
KST3 131130Z 25010KT M00/M04 A2989 RMK A01 T10021039  RH  076%=      5-min Rain = 0
KST3 131131Z 25010KT M00/M04 A2989 RMK A01 T10031039  RH  077%=      5-min Rain = 0
KST3 131132Z 25010KT M00/M04 A2989 RMK A01 T10031039  RH  077%=      5-min Rain = 0
KST3 131133Z 25010KT M00/M04 A2989 RMK A01 T10031039  RH  077%=      5-min Rain = 0
KST3 131134Z 25010KT M00/M04 A2989 RMK A01 T10041039  RH  077%=      5-min Rain = 0
KST3 131135Z 25010KT M00/M04 A2989 RMK A01 T10041040  RH  077%=      5-min Rain = 0
KST3 131136Z 25011KT M00/M04 A2989 RMK A01 T10041039  RH  077%=      5-min Rain = 0
KST3 131137Z 25010KT M01/M04 A2989 RMK A01 T10051039  RH  077%=      5-min Rain = 0
KST3 131138Z 25010KT M01/M04 A2989 RMK A01 T10051039  RH  078%=      5-min Rain = 0
KST3 131139Z 25010KT M01/M04 A2989 RMK A01 T10051039  RH  078%=      5-min Rain = 0
KST3 131140Z 25010KT M01/M04 A2989 RMK A01 T10051039  RH  078%=      5-min Rain = 0
KST3 131141Z 25010KT M01/M04 A2989 RMK A01 T10051039  RH  078%=      5-min Rain = 0
KST3 131142Z 25010KT M01/M04 A2989 RMK A01 T10061039  RH  078%=      5-min Rain = 0
KST3 131143Z 24010KT M01/M04 A2989 RMK A01 T10061039  RH  078%=      5-min Rain = 0
KST3 131144Z 24010KT M01/M04 A2989 RMK A01 T10071040  RH  078%=      5-min Rain = 0
KST3 131145Z 25011KT M01/M04 A2989 RMK A01 T10071040  RH  079%=      5-min Rain = 0
KST3 131146Z 25010KT M01/M04 A2989 RMK A01 T10071040  RH  079%=      5-min Rain = 0
KST3 131147Z 25010KT M01/M04 A2989 RMK A01 T10071040  RH  079%=      5-min Rain = 0
KST3 131148Z 25010KT M01/M04 A2989 RMK A01 T10081040  RH  079%=      5-min Rain = 0
KST3 131149Z 25010KT M01/M04 A2989 RMK A01 T10081040  RH  079%=      5-min Rain = 0
KST3 131150Z 25009KT M01/M04 A2989 RMK A01 T10081040  RH  079%=      5-min Rain = 0
KST3 131151Z 25009KT M01/M04 A2989 RMK A01 T10071040  RH  079%=      5-min Rain = 0
KST3 131152Z 26009KT M01/M04 A2989 RMK A01 T10071040  RH  079%=      5-min Rain = 0
KST3 131153Z 26009KT M01/M04 A2989 RMK A01 T10071040  RH  078%=      5-min Rain = 0
KST3 131154Z 26009KT M01/M04 A2989 RMK A01 T10061039  RH  078%=      5-min Rain = 0
KST3 131155Z 26009KT M01/M04 A2988 RMK A01 T10051039  RH  078%=      5-min Rain = 0
KST3 131156Z 26010KT M01/M04 A2988 RMK A01 T10051040  RH  077%=      5-min Rain = 0
KST3 131157Z 27010KT M00/M04 A2988 RMK A01 T10041039  RH  077%=      5-min Rain = 0
KST3 131158Z 27010KT M00/M04 A2988 RMK A01 T10031039  RH  077%=      5-min Rain = 0
KST3 131159Z 27010KT M00/M04 A2988 RMK A01 T10031039  RH  077%=      5-min Rain = 0
KST3 131200Z 27009KT M00/M04 A2988 RMK A01 T10021039  RH  076%=      5-min Rain = 0
KST3 131201Z 27009KT M00/M04 A2988 RMK A01 T10031039  RH  076%=      5-min Rain = 0
KST3 131202Z 28008KT M00/M04 A2988 RMK A01 T10031040  RH  077%=      5-min Rain = 0
KST3 131203Z 27009KT M00/M04 A2988 RMK A01 T10041040  RH  077%=      5-min Rain = 0
KST3 131204Z 27009KT M01/M04 A2988 RMK A01 T10051040  RH  077%=      5-min Rain = 0
KST3 131205Z 27009KT M01/M04 A2988 RMK A01 T10051040  RH  077%=      5-min Rain = 0
KST3 131206Z 27010KT M01/M04 A2988 RMK A01 T10061041  RH  077%=      5-min Rain = 0
KST3 131207Z 27009KT M01/M04 A2988 RMK A01 T10061041  RH  077%=      5-min Rain = 0
KST3 131208Z 26010KT M01/M04 A2988 RMK A01 T10061041  RH  077%=      5-min Rain = 0
KST3 131209Z 26009KT M01/M04 A2988 RMK A01 T10071042  RH  078%=      5-min Rain = 0
KST3 131210Z 26009KT M01/M04 A2988 RMK A01 T10081042  RH  078%=      5-min Rain = 0
KST3 131216Z 25009KT M01/M04 A2988 RMK A01 T10091040  RH  079%=      5-min Rain = 0
KST3 131217Z 25009KT M01/M04 A2988 RMK A01 T10081040  RH  079%=      5-min Rain = 0
KST3 131218Z 25009KT M01/M04 A2988 RMK A01 T10081040  RH  079%=      5-min Rain = 0
KST3 131219Z 25009KT M01/M04 A2988 RMK A01 T10081040  RH  079%=      5-min Rain = 0
KST3 131220Z 25009KT M01/M04 A2988 RMK A01 T10091040  RH  079%=      5-min Rain = 0
KST3 131221Z 25008KT M01/M04 A2988 RMK A01 T10091040  RH  079%=      5-min Rain = 0
KST3 131222Z 25009KT M01/M04 A2988 RMK A01 T10091040  RH  080%=      5-min Rain = 0
KST3 131223Z 25010KT M01/M04 A2988 RMK A01 T10091040  RH  080%=      5-min Rain = 0
KST3 131224Z 25009KT M01/M04 A2988 RMK A01 T10091040  RH  080%=      5-min Rain = 0
KST3 131225Z 25009KT M01/M04 A2988 RMK A01 T10091040  RH  080%=      5-min Rain = 0
KST3 131226Z 25010KT M01/M04 A2988 RMK A01 T10091040  RH  079%=      5-min Rain = 0
KST3 131227Z 25010KT M01/M04 A2988 RMK A01 T10091040  RH  079%=      5-min Rain = 0
KST3 131228Z 25010KT M01/M04 A2988 RMK A01 T10091040  RH  080%=      5-min Rain = 0
KST3 131229Z 25010KT M01/M04 A2988 RMK A01 T10101040  RH  080%=      5-min Rain = 0
KST3 131230Z 25011KT M01/M04 A2988 RMK A01 T10101039  RH  080%=      5-min Rain = 0
KST3 131231Z 26011KT M01/M04 A2988 RMK A01 T10101039  RH  080%=      5-min Rain = 0
KST3 131232Z 25011KT M01/M04 A2988 RMK A01 T10091039  RH  080%=      5-min Rain = 0
KST3 131233Z 26010KT M01/M04 A2988 RMK A01 T10091039  RH  080%=      5-min Rain = 0
KST3 131234Z 26010KT M01/M04 A2988 RMK A01 T10091039  RH  080%=      5-min Rain = 0
KST3 131235Z 26010KT M01/M04 A2988 RMK A01 T10101040  RH  080%=      5-min Rain = 0
KST3 131236Z 26011KT M01/M04 A2988 RMK A01 T10111040  RH  080%=      5-min Rain = 0
KST3 131237Z 26011KT M01/M04 A2988 RMK A01 T10111040  RH  081%=      5-min Rain = 0
KST3 131238Z 26012KT M01/M04 A2987 RMK A01 T10121040  RH  081%=      5-min Rain = 0
KST3 131239Z 25012KT M01/M04 A2987 RMK A01 T10121039  RH  082%=      5-min Rain = 0
KST3 131240Z 25011KT M01/M04 A2987 RMK A01 T10121039  RH  082%=      5-min Rain = 0
KST3 131241Z 26011KT M01/M04 A2988 RMK A01 T10101038  RH  081%=      5-min Rain = 0
KST3 131242Z 26011KT M01/M04 A2988 RMK A01 T10101038  RH  081%=      5-min Rain = 0
KST3 131243Z 26012KT M01/M04 A2988 RMK A01 T10101038  RH  081%=      5-min Rain = 0
KST3 131244Z 26012KT M01/M04 A2988 RMK A01 T10111039  RH  081%=      5-min Rain = 0
KST3 131245Z 26012KT M01/M04 A2988 RMK A01 T10101038  RH  081%=      5-min Rain = 0
KST3 131246Z 26013KT M01/M04 A2988 RMK A01 T10091038  RH  081%=      5-min Rain = 0
KST3 131247Z 26013KT M01/M04 A2988 RMK A01 T10091038  RH  080%=      5-min Rain = 0
KST3 131248Z 26012KT M01/M04 A2988 RMK A01 T10091039  RH  080%=      5-min Rain = 0
KST3 131249Z 25014KT M01/M04 A2988 RMK A01 T10081039  RH  080%=      5-min Rain = 0
KST3 131250Z 25013KT M01/M04 A2988 RMK A01 T10081038  RH  080%=      5-min Rain = 0
KST3 131251Z 25013KT M01/M04 A2988 RMK A01 T10081038  RH  080%=      5-min Rain = 0
KST3 131252Z 25013KT M01/M04 A2988 RMK A01 T10071038  RH  079%=      5-min Rain = 0
KST3 131253Z 25013KT M01/M04 A2988 RMK A01 T10071038  RH  079%=      5-min Rain = 0
KST3 131254Z 25013KT M01/M04 A2988 RMK A01 T10071038  RH  079%=      5-min Rain = 0
KST3 131255Z 25014KT M01/M04 A2988 RMK A01 T10071039  RH  079%=      5-min Rain = 0
KST3 131256Z 25014KT M01/M04 A2988 RMK A01 T10071039  RH  079%=      5-min Rain = 0
KST3 131257Z 25015KT M01/M04 A2988 RMK A01 T10071039  RH  079%=      5-min Rain = 0
KST3 131258Z 25014KT M01/M04 A2988 RMK A01 T10081040  RH  079%=      5-min Rain = 0
KST3 131259Z 25013KT M01/M04 A2988 RMK A01 T10101041  RH  079%=      5-min Rain = 0
KST3 131300Z 25013KT M01/M04 A2988 RMK A01 T10111042  RH  080%=      5-min Rain = 0
KST3 131301Z 25013KT M01/M04 A2988 RMK A01 T10121042  RH  080%=      5-min Rain = 0
KST3 131302Z 25013KT M01/M04 A2988 RMK A01 T10141042  RH  081%=      5-min Rain = 0
KST3 131303Z 25014KT M01/M04 A2988 RMK A01 T10141042  RH  081%=      5-min Rain = 0
KST3 131304Z 25013KT M01/M04 A2988 RMK A01 T10141042  RH  082%=      5-min Rain = 0
KST3 131305Z 25014KT M02/M04 A2988 RMK A01 T10151042  RH  082%=      5-min Rain = 0
KST3 131306Z 25014KT M02/M04 A2988 RMK A01 T10161043  RH  082%=      5-min Rain = 0
KST3 131307Z 25014KT M02/M04 A2988 RMK A01 T10161042  RH  083%=      5-min Rain = 0
KST3 131308Z 25013KT M02/M04 A2988 RMK A01 T10161042  RH  083%=      5-min Rain = 0
KST3 131309Z 25013KT M02/M04 A2988 RMK A01 T10171042  RH  083%=      5-min Rain = 0
KST3 131310Z 25013KT M02/M04 A2988 RMK A01 T10161041  RH  083%=      5-min Rain = 0
KST3 131311Z 25012KT M02/M04 A2988 RMK A01 T10151041  RH  083%=      5-min Rain = 0
KST3 131312Z 25013KT M02/M04 A2988 RMK A01 T10151041  RH  082%=      5-min Rain = 0
KST3 131313Z 25013KT M02/M04 A2988 RMK A01 T10151041  RH  082%=      5-min Rain = 0
KST3 131314Z 25013KT M02/M04 A2988 RMK A01 T10151042  RH  082%=      5-min Rain = 0
KST3 131315Z 25013KT M02/M04 A2988 RMK A01 T10151042  RH  082%=      5-min Rain = 0
KST3 131316Z 26013KT M02/M04 A2989 RMK A01 T10151042  RH  082%=      5-min Rain = 0
KST3 131317Z 26013KT M02/M04 A2989 RMK A01 T10151042  RH  082%=      5-min Rain = 0
KST3 131318Z 26013KT M01/M04 A2989 RMK A01 T10141041  RH  082%=      5-min Rain = 0
KST3 131319Z 26013KT M01/M04 A2989 RMK A01 T10141042  RH  082%=      5-min Rain = 0
KST3 131320Z 26013KT M02/M04 A2989 RMK A01 T10151042  RH  082%=      5-min Rain = 0
KST3 131321Z 27012KT M01/M04 A2989 RMK A01 T10141041  RH  082%=      5-min Rain = 0
KST3 131322Z 27012KT M01/M04 A2989 RMK A01 T10141041  RH  082%=      5-min Rain = 0
KST3 131323Z 27012KT M01/M04 A2989 RMK A01 T10131042  RH  081%=      5-min Rain = 0
KST3 131324Z 27011KT M02/M04 A2989 RMK A01 T10151043  RH  081%=      5-min Rain = 0
KST3 131325Z 27011KT M02/M04 A2989 RMK A01 T10151043  RH  082%=      5-min Rain = 0
KST3 131326Z 27011KT M02/M04 A2989 RMK A01 T10161043  RH  082%=      5-min Rain = 0
KST3 131327Z 26011KT M02/M04 A2989 RMK A01 T10161043  RH  082%=      5-min Rain = 0
KST3 131328Z 26011KT M02/M04 A2989 RMK A01 T10171043  RH  082%=      5-min Rain = 0
KST3 131329Z 26011KT M02/M04 A2989 RMK A01 T10181044  RH  083%=      5-min Rain = 0
KST3 131330Z 25012KT M02/M04 A2989 RMK A01 T10191044  RH  083%=      5-min Rain = 0
KST3 131331Z 25011KT M02/M04 A2989 RMK A01 T10201044  RH  084%=      5-min Rain = 0
KST3 131332Z 25012KT M02/M04 A2989 RMK A01 T10201044  RH  084%=      5-min Rain = 0
KST3 131333Z 25012KT M02/M04 A2989 RMK A01 T10211044  RH  084%=      5-min Rain = 0
KST3 131334Z 25012KT M02/M04 A2989 RMK A01 T10211044  RH  084%=      5-min Rain = 0
KST3 131335Z 25012KT M02/M05 A2989 RMK A01 T10211045  RH  084%=      5-min Rain = 0
KST3 131336Z 25012KT M02/M05 A2989 RMK A01 T10211045  RH  084%=      5-min Rain = 0
KST3 131337Z 25012KT M02/M04 A2989 RMK A01 T10211044  RH  084%=      5-min Rain = 0
KST3 131338Z 25012KT M02/M05 A2989 RMK A01 T10201045  RH  084%=      5-min Rain = 0
KST3 131339Z 26011KT M02/M05 A2989 RMK A01 T10201045  RH  083%=      5-min Rain = 0
KST3 131340Z 27011KT M02/M05 A2989 RMK A01 T10201045  RH  083%=      5-min Rain = 0
KST3 131341Z 27011KT M02/M05 A2989 RMK A01 T10201045  RH  083%=      5-min Rain = 0
KST3 131342Z 28010KT M02/M05 A2989 RMK A01 T10201045  RH  083%=      5-min Rain = 0
KST3 131343Z 28010KT M02/M05 A2989 RMK A01 T10201045  RH  083%=      5-min Rain = 0
KST3 131344Z 27010KT M02/M05 A2989 RMK A01 T10191045  RH  083%=      5-min Rain = 0
KST3 131345Z 27010KT M02/M04 A2989 RMK A01 T10181044  RH  082%=      5-min Rain = 0
KST3 131346Z 27010KT M02/M05 A2989 RMK A01 T10181045  RH  082%=      5-min Rain = 0
KST3 131347Z 26010KT M02/M05 A2989 RMK A01 T10181046  RH  082%=      5-min Rain = 0
KST3 131348Z 26011KT M02/M05 A2989 RMK A01 T10191046  RH  082%=      5-min Rain = 0
KST3 131349Z 26011KT M02/M05 A2989 RMK A01 T10191046  RH  082%=      5-min Rain = 0
KST3 131350Z 26011KT M02/M05 A2989 RMK A01 T10191046  RH  082%=      5-min Rain = 0
KST3 131351Z 26011KT M02/M05 A2989 RMK A01 T10181045  RH  082%=      5-min Rain = 0
KST3 131352Z 26010KT M02/M05 A2989 RMK A01 T10181045  RH  082%=      5-min Rain = 0
KST3 131353Z 26010KT M02/M05 A2989 RMK A01 T10171045  RH  081%=      5-min Rain = 0
KST3 131354Z 27011KT M02/M05 A2989 RMK A01 T10171045  RH  081%=      5-min Rain = 0
KST3 131355Z 27011KT M02/M05 A2989 RMK A01 T10171045  RH  081%=      5-min Rain = 0
KST3 131356Z 27011KT M02/M05 A2989 RMK A01 T10171045  RH  081%=      5-min Rain = 0
KST3 131357Z 27012KT M02/M05 A2989 RMK A01 T10161046  RH  080%=      5-min Rain = 0
KST3 131358Z 28012KT M02/M05 A2989 RMK A01 T10161046  RH  080%=      5-min Rain = 0
KST3 131359Z 28012KT M01/M05 A2989 RMK A01 T10141045  RH  079%=      5-min Rain = 0
KST3 131400Z 28012KT M01/M05 A2989 RMK A01 T10121045  RH  078%=      5-min Rain = 0
KST3 131401Z 28013KT M01/M04 A2989 RMK A01 T10101044  RH  077%=      5-min Rain = 0
KST3 131402Z 28013KT M01/M05 A2989 RMK A01 T10091045  RH  077%=      5-min Rain = 0
KST3 131403Z 28012KT M01/M05 A2989 RMK A01 T10081045  RH  076%=      5-min Rain = 0
KST3 131404Z 28011KT M01/M05 A2989 RMK A01 T10071045  RH  076%=      5-min Rain = 0
KST3 131405Z 28010KT M01/M05 A2989 RMK A01 T10071045  RH  075%=      5-min Rain = 0
KST3 131406Z 28010KT M01/M05 A2989 RMK A01 T10071045  RH  075%=      5-min Rain = 0
KST3 131407Z 27010KT M01/M05 A2989 RMK A01 T10081045  RH  076%=      5-min Rain = 0
KST3 131408Z 27011KT M01/M05 A2989 RMK A01 T10081045  RH  076%=      5-min Rain = 0
KST3 131409Z 28011KT M01/M05 A2989 RMK A01 T10081045  RH  076%=      5-min Rain = 0
KST3 131410Z 28011KT M01/M05 A2989 RMK A01 T10071045  RH  076%=      5-min Rain = 0
KST3 131411Z 29011KT M01/M05 A2989 RMK A01 T10071045  RH  075%=      5-min Rain = 0
KST3 131412Z 29011KT M01/M04 A2989 RMK A01 T10061044  RH  075%=      5-min Rain = 0
KST3 131413Z 28012KT M01/M04 A299 RMK A01 T10061044  RH  075%=      5-min Rain = 0
KST3 131414Z 28011KT M01/M04 A299 RMK A01 T10061044  RH  075%=      5-min Rain = 0
KST3 131415Z 28011KT M01/M04 A299 RMK A01 T10061044  RH  075%=      5-min Rain = 0
KST3 131416Z 28012KT M01/M04 A299 RMK A01 T10051044  RH  075%=      5-min Rain = 0
KST3 131417Z 28012KT M00/M04 A299 RMK A01 T10041044  RH  074%=      5-min Rain = 0
KST3 131418Z 28012KT M00/M04 A299 RMK A01 T10031044  RH  074%=      5-min Rain = 0
KST3 131419Z 28010KT M00/M04 A299 RMK A01 T10021043  RH  074%=      5-min Rain = 0
KST3 131420Z 28010KT M00/M04 A299 RMK A01 T10021044  RH  073%=      5-min Rain = 0
KST3 131421Z 28010KT M00/M04 A299 RMK A01 T10011043  RH  073%=      5-min Rain = 0
KST3 131422Z 28011KT M00/M04 A299 RMK A01 T10021044  RH  073%=      5-min Rain = 0
KST3 131423Z 28011KT M00/M04 A299 RMK A01 T10021043  RH  074%=      5-min Rain = 0
KST3 131424Z 28011KT M00/M04 A299 RMK A01 T10021043  RH  074%=      5-min Rain = 0
KST3 131425Z 28011KT M00/M04 A299 RMK A01 T10011042  RH  074%=      5-min Rain = 0
KST3 131426Z 28011KT 00/04 A299 RMK A01 T00-00-42  RH  073%=      5-min Rain = 0
KST3 131427Z 28010KT 00/M04 A299 RMK A01 T00011042  RH  073%=      5-min Rain = 0
KST3 131428Z 27011KT 00/M04 A299 RMK A01 T00021042  RH  072%=      5-min Rain = 0
KST3 131429Z 27011KT 00/M04 A299 RMK A01 T00031042  RH  072%=      5-min Rain = 0
KST3 131430Z 27012KT 00/M04 A299 RMK A01 T00031041  RH  072%=      5-min Rain = 0
KST3 131431Z 27012KT 00/M04 A299 RMK A01 T00031041  RH  072%=      5-min Rain = 0
KST3 131432Z 26011KT 00/M04 A299 RMK A01 T00031040  RH  073%=      5-min Rain = 0
KST3 131433Z 27011KT 00/M04 A299 RMK A01 T00031040  RH  073%=      5-min Rain = 0
KST3 131434Z 27011KT 00/M04 A299 RMK A01 T00041040  RH  072%=      5-min Rain = 0
KST3 131435Z 27011KT 01/M04 A299 RMK A01 T00051040  RH  072%=      5-min Rain = 0
KST3 131436Z 27010KT 01/M04 A299 RMK A01 T00061040  RH  071%=      5-min Rain = 0
KST3 131437Z 28011KT 01/M04 A299 RMK A01 T00071039  RH  071%=      5-min Rain = 0
KST3 131438Z 28011KT 01/M04 A299 RMK A01 T00081039  RH  071%=      5-min Rain = 0
KST3 131439Z 28011KT 01/M04 A299 RMK A01 T00091038  RH  070%=      5-min Rain = 0
KST3 131440Z 28012KT 01/M04 A299 RMK A01 T00101038  RH  070%=      5-min Rain = 0
KST3 131441Z 28012KT 01/M04 A299 RMK A01 T00111038  RH  070%=      5-min Rain = 0
KST3 131442Z 28012KT 01/M04 A299 RMK A01 T00111037  RH  070%=      5-min Rain = 0
KST3 131443Z 28011KT 01/M04 A2991 RMK A01 T00121038  RH  069%=      5-min Rain = 0
KST3 131444Z 28011KT 01/M04 A2991 RMK A01 T00131037  RH  069%=      5-min Rain = 0
KST3 131445Z 28010KT 01/M04 A2991 RMK A01 T00141038  RH  069%=      5-min Rain = 0
KST3 131446Z 28010KT 02/M04 A2991 RMK A01 T00151037  RH  069%=      5-min Rain = 0
KST3 131447Z 28010KT 02/M04 A2991 RMK A01 T00151037  RH  068%=      5-min Rain = 0
KST3 131448Z 28010KT 02/M04 A2991 RMK A01 T00151037  RH  068%=      5-min Rain = 0
KST3 131449Z 28010KT 02/M04 A2991 RMK A01 T00151036  RH  069%=      5-min Rain = 0
KST3 131450Z 28010KT 02/M04 A2991 RMK A01 T00151036  RH  069%=      5-min Rain = 0
KST3 131451Z 28011KT 02/M04 A2991 RMK A01 T00151036  RH  069%=      5-min Rain = 0
KST3 131452Z 28011KT 02/M04 A2991 RMK A01 T00161035  RH  069%=      5-min Rain = 0
KST3 131453Z 28012KT 02/M04 A2991 RMK A01 T00171035  RH  068%=      5-min Rain = 0
KST3 131454Z 29012KT 02/M04 A2991 RMK A01 T00181035  RH  068%=      5-min Rain = 0
KST3 131455Z 28012KT 02/M03 A2991 RMK A01 T00201034  RH  068%=      5-min Rain = 0
KST3 131456Z 29011KT 02/M03 A2991 RMK A01 T00211033  RH  067%=      5-min Rain = 0
KST3 131457Z 28011KT 02/M03 A2991 RMK A01 T00231032  RH  067%=      5-min Rain = 0
KST3 131458Z 29012KT 03/M03 A2991 RMK A01 T00251032  RH  066%=      5-min Rain = 0
KST3 131459Z 29013KT 03/M03 A2991 RMK A01 T00281033  RH  064%=      5-min Rain = 0
KST3 131500Z 28012KT 03/M03 A2991 RMK A01 T00311033  RH  063%=      5-min Rain = 0
KST3 131501Z 28012KT 03/M03 A2991 RMK A01 T00321032  RH  063%=      5-min Rain = 0
KST3 131502Z 28011KT 03/M03 A2991 RMK A01 T00311032  RH  063%=      5-min Rain = 0
KST3 131503Z 29011KT 03/M03 A2991 RMK A01 T00311031  RH  064%=      5-min Rain = 0
KST3 131504Z 29011KT 03/M03 A2991 RMK A01 T00321030  RH  064%=      5-min Rain = 0
KST3 131505Z 28010KT 03/M03 A2991 RMK A01 T00341028  RH  064%=      5-min Rain = 0
KST3 131506Z 28011KT 03/M03 A2991 RMK A01 T00341029  RH  063%=      5-min Rain = 0
KST3 131507Z 28011KT 03/M03 A2991 RMK A01 T00341029  RH  063%=      5-min Rain = 0
KST3 131508Z 28011KT 03/M03 A2991 RMK A01 T00341028  RH  064%=      5-min Rain = 0
KST3 131509Z 28012KT 04/M03 A2991 RMK A01 T00351029  RH  063%=      5-min Rain = 0
KST3 131510Z 28011KT 04/M03 A2991 RMK A01 T00361028  RH  063%=      5-min Rain = 0
KST3 131511Z 28010KT 04/M03 A2991 RMK A01 T00361027  RH  063%=      5-min Rain = 0
KST3 131512Z 28010KT 04/M03 A2992 RMK A01 T00371027  RH  063%=      5-min Rain = 0
KST3 131513Z 28009KT 04/M03 A2992 RMK A01 T00371027  RH  063%=      5-min Rain = 0
KST3 131514Z 28010KT 04/M03 A2992 RMK A01 T00371026  RH  063%=      5-min Rain = 0
KST3 131515Z 28009KT 04/M03 A2992 RMK A01 T00381026  RH  063%=      5-min Rain = 0
KST3 131516Z 28009KT 04/M03 A2992 RMK A01 T00381026  RH  063%=      5-min Rain = 0
KST3 131517Z 28008KT 04/M03 A2992 RMK A01 T00381025  RH  064%=      5-min Rain = 0
KST3 131518Z 29009KT 04/M02 A2992 RMK A01 T00391024  RH  063%=      5-min Rain = 0
KST3 131519Z 28009KT 04/M02 A2992 RMK A01 T00401024  RH  063%=      5-min Rain = 0
KST3 131520Z 28008KT 04/M02 A2991 RMK A01 T00411023  RH  063%=      5-min Rain = 0
KST3 131521Z 29008KT 04/M02 A2991 RMK A01 T00431022  RH  063%=      5-min Rain = 0
KST3 131522Z 29009KT 05/M02 A2992 RMK A01 T00461021  RH  062%=      5-min Rain = 0
KST3 131523Z 28009KT 05/M02 A2992 RMK A01 T00481023  RH  060%=      5-min Rain = 0
KST3 131524Z 28008KT 05/M02 A2992 RMK A01 T00501024  RH  059%=      5-min Rain = 0
KST3 131525Z 27007KT 05/M02 A2992 RMK A01 T00491024  RH  059%=      5-min Rain = 0
KST3 131526Z 26008KT 05/M02 A2992 RMK A01 T00491022  RH  060%=      5-min Rain = 0
KST3 131527Z 27008KT 05/M02 A2992 RMK A01 T00481023  RH  060%=      5-min Rain = 0
KST3 131528Z 27007KT 05/M02 A2993 RMK A01 T00461023  RH  061%=      5-min Rain = 0
KST3 131529Z 27006KT 05/M02 A2993 RMK A01 T00471022  RH  061%=      5-min Rain = 0
KST3 131530Z 26006KT 05/M02 A2993 RMK A01 T00481020  RH  062%=      5-min Rain = 0
KST3 131531Z 26006KT 05/M02 A2993 RMK A01 T00481021  RH  061%=      5-min Rain = 0
KST3 131532Z 26006KT 05/M02 A2993 RMK A01 T00481020  RH  061%=      5-min Rain = 0
KST3 131533Z 25006KT 05/M02 A2993 RMK A01 T00491020  RH  061%=      5-min Rain = 0
KST3 131534Z 26006KT 05/M02 A2993 RMK A01 T00511021  RH  060%=      5-min Rain = 0
KST3 131535Z 26005KT 05/M02 A2993 RMK A01 T00511020  RH  060%=      5-min Rain = 0
KST3 131536Z 26004KT 05/M02 A2993 RMK A01 T00511019  RH  060%=      5-min Rain = 0
KST3 131537Z 27004KT 05/M02 A2993 RMK A01 T00521018  RH  060%=      5-min Rain = 0
KST3 131538Z 27004KT 05/M02 A2993 RMK A01 T00541019  RH  060%=      5-min Rain = 0
KST3 131539Z 27004KT 06/M02 A2993 RMK A01 T00551019  RH  059%=      5-min Rain = 0
KST3 131540Z 29005KT 06/M02 A2993 RMK A01 T00571019  RH  058%=      5-min Rain = 0
KST3 131541Z 29005KT 06/M02 A2993 RMK A01 T00591020  RH  057%=      5-min Rain = 0
KST3 131542Z 29005KT 06/M02 A2993 RMK A01 T00601021  RH  056%=      5-min Rain = 0
KST3 131543Z 30005KT 06/M02 A2993 RMK A01 T00611020  RH  056%=      5-min Rain = 0
KST3 131544Z 29005KT 06/M02 A2993 RMK A01 T00611020  RH  056%=      5-min Rain = 0
KST3 131545Z 31004KT 06/M02 A2993 RMK A01 T00621021  RH  056%=      5-min Rain = 0
KST3 131546Z 31004KT 06/M02 A2993 RMK A01 T00621020  RH  056%=      5-min Rain = 0
KST3 131547Z 30004KT 06/M02 A2993 RMK A01 T00631019  RH  056%=      5-min Rain = 0
KST3 131548Z 31003KT 06/M02 A2993 RMK A01 T00631019  RH  056%=      5-min Rain = 0
KST3 131549Z 31003KT 06/M02 A2993 RMK A01 T00641018  RH  056%=      5-min Rain = 0
KST3 131550Z 30004KT 06/M02 A2993 RMK A01 T00641016  RH  057%=      5-min Rain = 0
KST3 131551Z 32004KT 07/M01 A2993 RMK A01 T00661013  RH  057%=      5-min Rain = 0
KST3 131552Z 31004KT 07/M02 A2993 RMK A01 T00671016  RH  055%=      5-min Rain = 0
KST3 131553Z 33006KT 07/M02 A2993 RMK A01 T00681016  RH  055%=      5-min Rain = 0
KST3 131554Z 34005KT 07/M02 A2993 RMK A01 T00681019  RH  054%=      5-min Rain = 0
KST3 131555Z 33005KT 07/M02 A2993 RMK A01 T00691018  RH  054%=      5-min Rain = 0
KST3 131556Z 32006KT 07/M02 A2993 RMK A01 T00691017  RH  054%=      5-min Rain = 0
KST3 131557Z 32006KT 07/M02 A2993 RMK A01 T00701017  RH  054%=      5-min Rain = 0
KST3 131558Z 32006KT 07/M02 A2993 RMK A01 T00711016  RH  054%=      5-min Rain = 0
KST3 131559Z 33006KT 07/M02 A2993 RMK A01 T00721016  RH  054%=      5-min Rain = 0
KST3 131600Z 33005KT 07/M02 A2993 RMK A01 T00721016  RH  053%=      5-min Rain = 0
KST3 131601Z 33004KT 07/M01 A2993 RMK A01 T00731014  RH  054%=      5-min Rain = 0
KST3 131602Z 34007KT 08/M01 A2993 RMK A01 T00751014  RH  053%=      5-min Rain = 0
KST3 131603Z 34006KT 08/M01 A2993 RMK A01 T00771014  RH  053%=      5-min Rain = 0
KST3 131604Z 33006KT 08/M01 A2993 RMK A01 T00781013  RH  052%=      5-min Rain = 0
KST3 131605Z 34007KT 08/M01 A2993 RMK A01 T00801014  RH  051%=      5-min Rain = 0
KST3 131606Z 33007KT 08/M02 A2993 RMK A01 T00811015  RH  051%=      5-min Rain = 0
KST3 131607Z 33007KT 08/M02 A2993 RMK A01 T00831015  RH  050%=      5-min Rain = 0
KST3 131608Z 34007KT 08/M02 A2993 RMK A01 T00831017  RH  049%=      5-min Rain = 0
KST3 131609Z 33008KT 09/M02 A2993 RMK A01 T00851016  RH  049%=      5-min Rain = 0
KST3 131610Z 34008KT 09/M02 A2993 RMK A01 T00861017  RH  048%=      5-min Rain = 0
KST3 131611Z 34010KT 09/M02 A2993 RMK A01 T00881021  RH  046%=      5-min Rain = 0
KST3 131612Z 34009KT 09/M02 A2993 RMK A01 T00881024  RH  045%=      5-min Rain = 0
KST3 131613Z 35008KT 09/M02 A2993 RMK A01 T00871023  RH  046%=      5-min Rain = 0
KST3 131614Z 35008KT 09/M02 A2993 RMK A01 T00871022  RH  046%=      5-min Rain = 0
KST3 131615Z 35006KT 09/M02 A2993 RMK A01 T00881024  RH  046%=      5-min Rain = 0
KST3 131616Z 34007KT 09/M02 A2993 RMK A01 T00881022  RH  046%=      5-min Rain = 0
KST3 131617Z 34009KT 09/M02 A2993 RMK A01 T00901021  RH  046%=      5-min Rain = 0
KST3 131618Z 33008KT 09/M03 A2993 RMK A01 T00901026  RH  044%=      5-min Rain = 0
KST3 131619Z 35007KT 09/M02 A2993 RMK A01 T00901023  RH  045%=      5-min Rain = 0
KST3 131620Z 35008KT 09/M02 A2993 RMK A01 T00911024  RH  044%=      5-min Rain = 0
KST3 131621Z 33008KT 09/M02 A2993 RMK A01 T00921023  RH  044%=      5-min Rain = 0
KST3 131622Z 33009KT 09/M02 A2993 RMK A01 T00921024  RH  044%=      5-min Rain = 0
KST3 131623Z 34008KT 09/M02 A2993 RMK A01 T00921023  RH  044%=      5-min Rain = 0
KST3 131624Z 34007KT 09/M02 A2993 RMK A01 T00921023  RH  044%=      5-min Rain = 0
KST3 131625Z 35006KT 09/M02 A2994 RMK A01 T00941018  RH  045%=      5-min Rain = 0
KST3 131626Z 34006KT 10/M02 A2993 RMK A01 T00971020  RH  044%=      5-min Rain = 0
KST3 131627Z 33007KT 10/M02 A2993 RMK A01 T00991021  RH  043%=      5-min Rain = 0
KST3 131628Z 34007KT 10/M02 A2993 RMK A01 T00981023  RH  043%=      5-min Rain = 0
KST3 131629Z 34006KT 10/M02 A2993 RMK A01 T00971023  RH  043%=      5-min Rain = 0
KST3 131630Z 35005KT 10/M02 A2993 RMK A01 T00991020  RH  044%=      5-min Rain = 0
KST3 131631Z 34007KT 10/M02 A2993 RMK A01 T01001021  RH  043%=      5-min Rain = 0
KST3 131632Z 34007KT 10/M03 A2993 RMK A01 T01011025  RH  041%=      5-min Rain = 0
KST3 131633Z 35006KT 10/M02 A2993 RMK A01 T01001024  RH  042%=      5-min Rain = 0
KST3 131634Z 35007KT 10/M03 A2993 RMK A01 T01021025  RH  041%=      5-min Rain = 0
KST3 131635Z 35006KT 10/M03 A2993 RMK A01 T01011026  RH  041%=      5-min Rain = 0
KST3 131636Z 34006KT 10/M02 A2993 RMK A01 T01021023  RH  042%=      5-min Rain = 0
KST3 131637Z 35006KT 10/M02 A2993 RMK A01 T01041020  RH  042%=      5-min Rain = 0
KST3 131638Z 34007KT 10/M02 A2993 RMK A01 T01041022  RH  041%=      5-min Rain = 0
KST3 131639Z 34006KT 10/M02 A2993 RMK A01 T01031023  RH  041%=      5-min Rain = 0
KST3 131640Z 34006KT 10/M02 A2993 RMK A01 T01041022  RH  042%=      5-min Rain = 0
KST3 131641Z 34007KT 10/M02 A2993 RMK A01 T01041024  RH  041%=      5-min Rain = 0
KST3 131642Z 34007KT 10/M02 A2993 RMK A01 T01041022  RH  041%=      5-min Rain = 0
KST3 131643Z 33008KT 11/M02 A2993 RMK A01 T01061020  RH  041%=      5-min Rain = 0
KST3 131644Z 34007KT 11/M02 A2993 RMK A01 T01071023  RH  040%=      5-min Rain = 0
KST3 131645Z 34009KT 11/M02 A2993 RMK A01 T01071021  RH  041%=      5-min Rain = 0
KST3 131646Z 34009KT 11/M02 A2993 RMK A01 T01091022  RH  040%=      5-min Rain = 0
KST3 131647Z 34009KT 11/M02 A2993 RMK A01 T01101024  RH  039%=      5-min Rain = 0
KST3 131648Z 34009KT 11/M02 A2993 RMK A01 T01091024  RH  039%=      5-min Rain = 0
KST3 131649Z 34010KT 11/M02 A2993 RMK A01 T01091023  RH  040%=      5-min Rain = 0
KST3 131650Z 34012KT 11/M03 A2993 RMK A01 T01101026  RH  039%=      5-min Rain = 0
KST3 131651Z 35010KT 11/M03 A2993 RMK A01 T01101027  RH  038%=      5-min Rain = 0
KST3 131652Z 34010KT 11/M03 A2993 RMK A01 T01101028  RH  038%=      5-min Rain = 0
KST3 131653Z 34011KT 11/M03 A2993 RMK A01 T01101027  RH  038%=      5-min Rain = 0
KST3 131654Z 36011KT 11/M03 A2993 RMK A01 T01101027  RH  038%=      5-min Rain = 0
KST3 131655Z 35008KT 11/M03 A2993 RMK A01 T01101027  RH  038%=      5-min Rain = 0
KST3 131656Z 34008KT 11/M02 A2993 RMK A01 T01121023  RH  039%=      5-min Rain = 0
KST3 131657Z 34010KT 12/M03 A2992 RMK A01 T01151027  RH  037%=      5-min Rain = 0
KST3 131658Z 35010KT 11/M03 A2992 RMK A01 T01141029  RH  037%=      5-min Rain = 0
KST3 131659Z 00010KT 11/M03 A2993 RMK A01 T01131027  RH  038%=      5-min Rain = 0
KST3 131700Z 35009KT 11/M02 A2993 RMK A01 T01131024  RH  038%=      5-min Rain = 0
KST3 131701Z 34011KT 11/M03 A2993 RMK A01 T01141025  RH  038%=      5-min Rain = 0
KST3 131702Z 34011KT 12/M03 A2993 RMK A01 T01151028  RH  037%=      5-min Rain = 0
KST3 131703Z 34013KT 12/M03 A2993 RMK A01 T01161026  RH  037%=      5-min Rain = 0
KST3 131704Z 36013KT 12/M03 A2993 RMK A01 T01161027  RH  037%=      5-min Rain = 0
KST3 131705Z 00009KT 12/M03 A2993 RMK A01 T01161026  RH  037%=      5-min Rain = 0
KST3 131706Z 35011KT 12/M02 A2993 RMK A01 T01171023  RH  038%=      5-min Rain = 0
KST3 131707Z 00014KT 12/M03 A2992 RMK A01 T01181025  RH  037%=      5-min Rain = 0
KST3 131708Z 00013KT 12/M03 A2992 RMK A01 T01181028  RH  036%=      5-min Rain = 0
KST3 131709Z 36015KT 12/M03 A2992 RMK A01 T01171027  RH  036%=      5-min Rain = 0
KST3 131710Z 36013KT 12/M03 A2992 RMK A01 T01171028  RH  036%=      5-min Rain = 0
KST3 131711Z 36012KT 12/M03 A2992 RMK A01 T01161028  RH  037%=      5-min Rain = 0
KST3 131712Z 34013KT 12/M03 A2992 RMK A01 T01161026  RH  037%=      5-min Rain = 0
KST3 131713Z 36011KT 12/M03 A2992 RMK A01 T01161026  RH  037%=      5-min Rain = 0
KST3 131714Z 36010KT 12/M03 A2992 RMK A01 T01161025  RH  037%=      5-min Rain = 0
KST3 131715Z 00009KT 12/M02 A2992 RMK A01 T01191023  RH  037%=      5-min Rain = 0
KST3 131716Z 01012KT 12/M02 A2992 RMK A01 T01211024  RH  036%=      5-min Rain = 0
KST3 131717Z 00016KT 12/M03 A2992 RMK A01 T01231028  RH  035%=      5-min Rain = 0
KST3 131718Z 36014KT 12/M03 A2992 RMK A01 T01231032  RH  034%=      5-min Rain = 0
KST3 131719Z 35014KT 12/M03 A2992 RMK A01 T01211032  RH  034%=      5-min Rain = 0
KST3 131720Z 35012KT 12/M03 A2992 RMK A01 T01211030  RH  035%=      5-min Rain = 0
KST3 131721Z 01014KT 12/M03 A2993 RMK A01 T01221032  RH  034%=      5-min Rain = 0
KST3 131722Z 36016KT 12/M03 A2993 RMK A01 T01201034  RH  034%=      5-min Rain = 0
KST3 131723Z 36017KT 12/M04 A2993 RMK A01 T01191035  RH  034%=      5-min Rain = 0
KST3 131724Z 36015KT 12/M04 A2993 RMK A01 T01171035  RH  034%=      5-min Rain = 0
KST3 131725Z 36014KT 12/M03 A2992 RMK A01 T01171034  RH  034%=      5-min Rain = 0
KST3 131726Z 00015KT 12/M03 A2992 RMK A01 T01181034  RH  035%=      5-min Rain = 0
KST3 131727Z 01015KT 12/M04 A2992 RMK A01 T01191035  RH  034%=      5-min Rain = 0
KST3 131728Z 01016KT 12/M03 A2992 RMK A01 T01201034  RH  034%=      5-min Rain = 0
KST3 131729Z 01015KT 12/M04 A2992 RMK A01 T01201035  RH  034%=      5-min Rain = 0
KST3 131730Z 01016KT 12/M03 A2992 RMK A01 T01201034  RH  034%=      5-min Rain = 0
KST3 131731Z 01014KT 12/M03 A2992 RMK A01 T01201034  RH  034%=      5-min Rain = 0
KST3 131732Z 36013KT 12/M03 A2991 RMK A01 T01211033  RH  034%=      5-min Rain = 0
KST3 131733Z 01014KT 12/M03 A2991 RMK A01 T01211033  RH  034%=      5-min Rain = 0
KST3 131734Z 00014KT 12/M03 A2991 RMK A01 T01221033  RH  034%=      5-min Rain = 0
KST3 131735Z 36013KT 12/M03 A2991 RMK A01 T01231032  RH  034%=      5-min Rain = 0
KST3 131736Z 36013KT 12/M03 A2991 RMK A01 T01241031  RH  034%=      5-min Rain = 0
KST3 131737Z 00012KT 12/M03 A2991 RMK A01 T01241031  RH  034%=      5-min Rain = 0
KST3 131738Z 01013KT 12/M03 A2991 RMK A01 T01241031  RH  034%=      5-min Rain = 0
KST3 131739Z 02012KT 12/M03 A2991 RMK A01 T01231032  RH  034%=      5-min Rain = 0
KST3 131740Z 01011KT 12/M03 A2991 RMK A01 T01211032  RH  034%=      5-min Rain = 0
KST3 131741Z 36011KT 12/M03 A2991 RMK A01 T01231030  RH  034%=      5-min Rain = 0
KST3 131742Z 35011KT 12/M03 A299 RMK A01 T01241031  RH  034%=      5-min Rain = 0
KST3 131743Z 00010KT 13/M03 A299 RMK A01 T01251028  RH  034%=      5-min Rain = 0
KST3 131744Z 00012KT 13/M03 A2991 RMK A01 T01291028  RH  033%=      5-min Rain = 0
KST3 131745Z 36013KT 13/M03 A299 RMK A01 T01301031  RH  033%=      5-min Rain = 0
KST3 131746Z 35013KT 13/M03 A299 RMK A01 T01281031  RH  033%=      5-min Rain = 0
KST3 131747Z 36013KT 13/M03 A299 RMK A01 T01271031  RH  033%=      5-min Rain = 0
KST3 131748Z 01013KT 13/M03 A299 RMK A01 T01271031  RH  033%=      5-min Rain = 0
KST3 131749Z 35012KT 13/M03 A299 RMK A01 T01281031  RH  033%=      5-min Rain = 0
KST3 131750Z 36013KT 13/M03 A299 RMK A01 T01271033  RH  033%=      5-min Rain = 0
KST3 131751Z 01012KT 13/M03 A299 RMK A01 T01261032  RH  033%=      5-min Rain = 0
KST3 131752Z 01010KT 13/M03 A299 RMK A01 T01261030  RH  034%=      5-min Rain = 0
KST3 131753Z 01013KT 13/M03 A299 RMK A01 T01281030  RH  033%=      5-min Rain = 0
KST3 131754Z 00012KT 13/M03 A2991 RMK A01 T01281031  RH  033%=      5-min Rain = 0
KST3 131755Z 00010KT 13/M03 A299 RMK A01 T01271031  RH  033%=      5-min Rain = 0
KST3 131756Z 01011KT 13/M03 A299 RMK A01 T01291030  RH  033%=      5-min Rain = 0
KST3 131757Z 01012KT 13/M03 A299 RMK A01 T01291031  RH  033%=      5-min Rain = 0
KST3 131758Z 02012KT 13/M03 A299 RMK A01 T01271033  RH  033%=      5-min Rain = 0
KST3 131759Z 01012KT 13/M03 A299 RMK A01 T01251034  RH  033%=      5-min Rain = 0
KST3 131800Z 01013KT 12/M03 A299 RMK A01 T01241032  RH  034%=      5-min Rain = 0
KST3 131801Z 00011KT 13/M03 A299 RMK A01 T01251032  RH  033%=      5-min Rain = 0
KST3 131802Z 01012KT 13/M03 A299 RMK A01 T01261029  RH  034%=      5-min Rain = 0
KST3 131803Z 01013KT 13/M03 A299 RMK A01 T01271031  RH  033%=      5-min Rain = 0
KST3 131804Z 35011KT 13/M03 A299 RMK A01 T01281031  RH  033%=      5-min Rain = 0
KST3 131805Z 01010KT 13/M03 A2989 RMK A01 T01301030  RH  033%=      5-min Rain = 0
KST3 131806Z 01011KT 13/M03 A2989 RMK A01 T01311030  RH  033%=      5-min Rain = 0
KST3 131807Z 00011KT 13/M03 A2989 RMK A01 T01301031  RH  032%=      5-min Rain = 0
KST3 131808Z 00010KT 13/M03 A2989 RMK A01 T01291031  RH  033%=      5-min Rain = 0
KST3 131809Z 01012KT 13/M03 A2989 RMK A01 T01301032  RH  032%=      5-min Rain = 0
KST3 131810Z 01011KT 13/M03 A2989 RMK A01 T01291033  RH  032%=      5-min Rain = 0
KST3 131811Z 00010KT 13/M03 A2989 RMK A01 T01291032  RH  033%=      5-min Rain = 0
KST3 131812Z 00011KT 13/M03 A2989 RMK A01 T01281031  RH  033%=      5-min Rain = 0
KST3 131813Z 36009KT 13/M03 A2989 RMK A01 T01281032  RH  033%=      5-min Rain = 0
KST3 131814Z 00011KT 13/M03 A2989 RMK A01 T01291030  RH  033%=      5-min Rain = 0
KST3 131815Z 01011KT 13/M03 A2989 RMK A01 T01301033  RH  032%=      5-min Rain = 0
KST3 131816Z 01010KT 13/M03 A2989 RMK A01 T01321029  RH  033%=      5-min Rain = 0
KST3 131817Z 01011KT 13/M03 A2989 RMK A01 T01341028  RH  032%=      5-min Rain = 0
KST3 131818Z 01012KT 13/M03 A2989 RMK A01 T01331029  RH  032%=      5-min Rain = 0
KST3 131819Z 01011KT 13/M03 A2989 RMK A01 T01321029  RH  033%=      5-min Rain = 0
KST3 131820Z 01011KT 13/M03 A2989 RMK A01 T01331028  RH  033%=      5-min Rain = 0
KST3 131821Z 00010KT 13/M03 A2989 RMK A01 T01321029  RH  033%=      5-min Rain = 0
KST3 131822Z 36010KT 13/M03 A2989 RMK A01 T01321029  RH  033%=      5-min Rain = 0
KST3 131823Z 36010KT 13/M03 A2989 RMK A01 T01321027  RH  033%=      5-min Rain = 0
KST3 131824Z 00009KT 13/M03 A2989 RMK A01 T01321030  RH  032%=      5-min Rain = 0
KST3 131825Z 01011KT 13/M03 A2989 RMK A01 T01311029  RH  033%=      5-min Rain = 0
KST3 131826Z 01009KT 13/M03 A2989 RMK A01 T01311027  RH  033%=      5-min Rain = 0
KST3 131827Z 01009KT 13/M03 A2989 RMK A01 T01321027  RH  033%=      5-min Rain = 0
KST3 131828Z 01011KT 13/M03 A2989 RMK A01 T01321026  RH  033%=      5-min Rain = 0
KST3 131829Z 02008KT 13/M03 A2989 RMK A01 T01331028  RH  033%=      5-min Rain = 0
KST3 131830Z 01009KT 13/M03 A2989 RMK A01 T01331027  RH  033%=      5-min Rain = 0
KST3 131831Z 36010KT 13/M03 A2989 RMK A01 T01341025  RH  033%=      5-min Rain = 0
KST3 131832Z 36010KT 14/M03 A2989 RMK A01 T01361025  RH  033%=      5-min Rain = 0
KST3 131833Z 36010KT 14/M02 A2989 RMK A01 T01351024  RH  033%=      5-min Rain = 0
KST3 131834Z 35009KT 13/M03 A2989 RMK A01 T01341026  RH  033%=      5-min Rain = 0
KST3 131835Z 35010KT 14/M03 A2989 RMK A01 T01351026  RH  033%=      5-min Rain = 0
KST3 131836Z 35010KT 14/M03 A2989 RMK A01 T01351028  RH  032%=      5-min Rain = 0
KST3 131837Z 36007KT 14/M03 A2989 RMK A01 T01351028  RH  032%=      5-min Rain = 0
KST3 131838Z 34009KT 14/M03 A2989 RMK A01 T01361026  RH  032%=      5-min Rain = 0
KST3 131839Z 34008KT 14/M03 A2989 RMK A01 T01361028  RH  032%=      5-min Rain = 0
KST3 131840Z 35006KT 13/M03 A2989 RMK A01 T01341027  RH  033%=      5-min Rain = 0
KST3 131841Z 36007KT 13/M03 A2989 RMK A01 T01331025  RH  033%=      5-min Rain = 0
KST3 131842Z 36009KT 14/M02 A2989 RMK A01 T01351023  RH  033%=      5-min Rain = 0
KST3 131843Z 36007KT 14/M02 A2989 RMK A01 T01351024  RH  033%=      5-min Rain = 0
KST3 131844Z 35007KT 14/M02 A2989 RMK A01 T01361023  RH  033%=      5-min Rain = 0
KST3 131845Z 36010KT 14/M02 A2989 RMK A01 T01371023  RH  033%=      5-min Rain = 0
KST3 131846Z 36007KT 14/M02 A2989 RMK A01 T01371023  RH  033%=      5-min Rain = 0
KST3 131847Z 34008KT 14/M02 A2989 RMK A01 T01371023  RH  033%=      5-min Rain = 0
KST3 131848Z 34010KT 14/M03 A2988 RMK A01 T01361025  RH  033%=      5-min Rain = 0
KST3 131849Z 35009KT 13/M03 A2988 RMK A01 T01341027  RH  032%=      5-min Rain = 0
KST3 131850Z 00011KT 13/M03 A2989 RMK A01 T01341027  RH  033%=      5-min Rain = 0
KST3 131851Z 35010KT 13/M03 A2989 RMK A01 T01331028  RH  033%=      5-min Rain = 0
KST3 131852Z 34010KT 13/M03 A2989 RMK A01 T01311027  RH  033%=      5-min Rain = 0
KST3 131853Z 35008KT 13/M03 A2988 RMK A01 T01311026  RH  033%=      5-min Rain = 0
KST3 131854Z 35008KT 13/M03 A2988 RMK A01 T01331025  RH  033%=      5-min Rain = 0
KST3 131855Z 35009KT 13/M03 A2988 RMK A01 T01321025  RH  034%=      5-min Rain = 0
KST3 131856Z 34010KT 13/M03 A2988 RMK A01 T01301028  RH  033%=      5-min Rain = 0
KST3 131857Z 35009KT 13/M03 A2989 RMK A01 T01271030  RH  034%=      5-min Rain = 0
KST3 131858Z 35008KT 13/M03 A2989 RMK A01 T01261027  RH  034%=      5-min Rain = 0
KST3 131859Z 35008KT 13/M03 A2989 RMK A01 T01261027  RH  034%=      5-min Rain = 0
KST3 131900Z 34009KT 13/M03 A2989 RMK A01 T01291025  RH  034%=      5-min Rain = 0
KST3 131901Z 35008KT 13/M02 A2989 RMK A01 T01301023  RH  034%=      5-min Rain = 0
KST3 131902Z 34009KT 13/M02 A2988 RMK A01 T01331023  RH  034%=      5-min Rain = 0
KST3 131903Z 34009KT 13/M02 A2988 RMK A01 T01341024  RH  033%=      5-min Rain = 0
KST3 131904Z 34010KT 13/M02 A2989 RMK A01 T01341023  RH  034%=      5-min Rain = 0
KST3 131905Z 34010KT 13/M02 A2989 RMK A01 T01331024  RH  034%=      5-min Rain = 0
KST3 131906Z 34012KT 13/M03 A2989 RMK A01 T01321025  RH  034%=      5-min Rain = 0
KST3 131907Z 34011KT 13/M03 A2989 RMK A01 T01321025  RH  034%=      5-min Rain = 0
KST3 131908Z 34011KT 13/M03 A2989 RMK A01 T01321025  RH  033%=      5-min Rain = 0
KST3 131909Z 35010KT 13/M02 A2989 RMK A01 T01311024  RH  034%=      5-min Rain = 0
KST3 131910Z 36010KT 13/M02 A2989 RMK A01 T01321023  RH  034%=      5-min Rain = 0
KST3 131911Z 34008KT 13/M02 A2989 RMK A01 T01311022  RH  034%=      5-min Rain = 0
KST3 131912Z 35008KT 13/M02 A2989 RMK A01 T01321022  RH  034%=      5-min Rain = 0
KST3 131913Z 35009KT 13/M02 A2989 RMK A01 T01321022  RH  034%=      5-min Rain = 0
KST3 131914Z 00008KT 13/M02 A2988 RMK A01 T01331023  RH  034%=      5-min Rain = 0
KST3 131915Z 35008KT 13/M02 A2988 RMK A01 T01341023  RH  034%=      5-min Rain = 0
KST3 131916Z 34010KT 14/M02 A2988 RMK A01 T01361023  RH  033%=      5-min Rain = 0
KST3 131917Z 34010KT 14/M03 A2988 RMK A01 T01371025  RH  032%=      5-min Rain = 0
KST3 131918Z 36011KT 14/M03 A2988 RMK A01 T01351025  RH  033%=      5-min Rain = 0
KST3 131919Z 35010KT 13/M02 A2988 RMK A01 T01331024  RH  034%=      5-min Rain = 0
KST3 131920Z 00009KT 13/M02 A2988 RMK A01 T01341022  RH  034%=      5-min Rain = 0
KST3 131921Z 01010KT 14/M02 A2988 RMK A01 T01371019  RH  034%=      5-min Rain = 0
KST3 131922Z 34009KT 14/M02 A2988 RMK A01 T01381020  RH  034%=      5-min Rain = 0
KST3 131923Z 35011KT 14/M02 A2988 RMK A01 T01391018  RH  034%=      5-min Rain = 0
KST3 131924Z 00012KT 14/M02 A2988 RMK A01 T01401022  RH  033%=      5-min Rain = 0
KST3 131925Z 00010KT 14/M03 A2988 RMK A01 T01371025  RH  032%=      5-min Rain = 0
KST3 131926Z 34009KT 14/M02 A2988 RMK A01 T01361022  RH  033%=      5-min Rain = 0
KST3 131927Z 34009KT 14/M02 A2988 RMK A01 T01381021  RH  033%=      5-min Rain = 0
KST3 131928Z 34011KT 14/M02 A2987 RMK A01 T01381020  RH  033%=      5-min Rain = 0
KST3 131929Z 33008KT 14/M02 A2987 RMK A01 T01371023  RH  033%=      5-min Rain = 0
KST3 131930Z 34009KT 13/M02 A2987 RMK A01 T01341023  RH  034%=      5-min Rain = 0
KST3 131931Z 34009KT 14/M02 A2988 RMK A01 T01351022  RH  034%=      5-min Rain = 0
KST3 131932Z 34008KT 14/M02 A2988 RMK A01 T01351022  RH  034%=      5-min Rain = 0
KST3 131933Z 34008KT 14/M02 A2988 RMK A01 T01391017  RH  034%=      5-min Rain = 0
KST3 131934Z 34007KT 14/M02 A2988 RMK A01 T01401019  RH  033%=      5-min Rain = 0
KST3 131935Z 33007KT 14/M02 A2988 RMK A01 T01391018  RH  034%=      5-min Rain = 0
KST3 131936Z 34009KT 14/M02 A2988 RMK A01 T01391017  RH  034%=      5-min Rain = 0
KST3 131937Z 35011KT 14/M02 A2987 RMK A01 T01411019  RH  033%=      5-min Rain = 0
KST3 131938Z 00009KT 14/M02 A2987 RMK A01 T01401019  RH  033%=      5-min Rain = 0
KST3 131939Z 00008KT 14/M02 A2987 RMK A01 T01401020  RH  033%=      5-min Rain = 0
KST3 131940Z 36006KT 14/M02 A2987 RMK A01 T01381021  RH  033%=      5-min Rain = 0
KST3 131941Z 33007KT 14/M02 A2987 RMK A01 T01381020  RH  034%=      5-min Rain = 0
KST3 131942Z 33005KT 14/M02 A2987 RMK A01 T01381021  RH  033%=      5-min Rain = 0
KST3 131943Z 35008KT 14/M02 A2987 RMK A01 T01381021  RH  033%=      5-min Rain = 0
KST3 131944Z 00010KT 14/M02 A2987 RMK A01 T01391021  RH  033%=      5-min Rain = 0
KST3 131945Z 01008KT 14/M03 A2987 RMK A01 T01401025  RH  032%=      5-min Rain = 0
KST3 131946Z 01008KT 14/M03 A2987 RMK A01 T01381025  RH  032%=      5-min Rain = 0
KST3 131947Z 03008KT 14/M02 A2988 RMK A01 T01391022  RH  033%=      5-min Rain = 0
KST3 131948Z 02007KT 14/M02 A2988 RMK A01 T01421020  RH  033%=      5-min Rain = 0
KST3 131949Z 00006KT 14/M02 A2988 RMK A01 T01421023  RH  032%=      5-min Rain = 0
KST3 131950Z 36005KT 14/M02 A2988 RMK A01 T01391022  RH  033%=      5-min Rain = 0
KST3 131951Z 35005KT 14/M02 A2987 RMK A01 T01401021  RH  033%=      5-min Rain = 0
KST3 131952Z 35007KT 14/M02 A2988 RMK A01 T01401023  RH  032%=      5-min Rain = 0
KST3 131953Z 34007KT 14/M02 A2987 RMK A01 T01391021  RH  033%=      5-min Rain = 0
KST3 131954Z 34009KT 14/M02 A2987 RMK A01 T01381023  RH  033%=      5-min Rain = 0
KST3 131955Z 33008KT 14/M02 A2987 RMK A01 T01361024  RH  033%=      5-min Rain = 0
KST3 131956Z 33007KT 14/M02 A2987 RMK A01 T01351024  RH  033%=      5-min Rain = 0
KST3 131957Z 33006KT 14/M03 A2987 RMK A01 T01351025  RH  033%=      5-min Rain = 0
KST3 131958Z 34008KT 14/M02 A2988 RMK A01 T01361023  RH  033%=      5-min Rain = 0
KST3 131959Z 34008KT 14/M02 A2988 RMK A01 T01391020  RH  033%=      5-min Rain = 0
KST3 132000Z 35006KT 14/M02 A2988 RMK A01 T01401023  RH  032%=      5-min Rain = 0
KST3 132001Z 34007KT 14/M02 A2988 RMK A01 T01381023  RH  033%=      5-min Rain = 0
KST3 132002Z 35008KT 14/M02 A2988 RMK A01 T01381022  RH  033%=      5-min Rain = 0
KST3 132003Z 35007KT 14/M02 A2988 RMK A01 T01391022  RH  033%=      5-min Rain = 0
KST3 132004Z 35007KT 14/M02 A2987 RMK A01 T01391022  RH  033%=      5-min Rain = 0
KST3 132005Z 34007KT 14/M02 A2987 RMK A01 T01401021  RH  033%=      5-min Rain = 0
KST3 132006Z 35006KT 14/M02 A2987 RMK A01 T01401022  RH  033%=      5-min Rain = 0
KST3 132007Z 00006KT 14/M02 A2987 RMK A01 T01391022  RH  033%=      5-min Rain = 0
KST3 132008Z 01005KT 14/M02 A2987 RMK A01 T01381022  RH  033%=      5-min Rain = 0
KST3 132009Z 01004KT 14/M02 A2987 RMK A01 T01371022  RH  033%=      5-min Rain = 0
KST3 132010Z 33005KT 14/M02 A2987 RMK A01 T01381020  RH  033%=      5-min Rain = 0
KST3 132011Z 33007KT 14/M02 A2987 RMK A01 T01411020  RH  033%=      5-min Rain = 0
KST3 132012Z 35008KT 14/M02 A2987 RMK A01 T01431018  RH  033%=      5-min Rain = 0
KST3 132013Z 34009KT 14/M02 A2987 RMK A01 T01441021  RH  032%=      5-min Rain = 0
KST3 132014Z 34008KT 14/M02 A2987 RMK A01 T01441022  RH  032%=      5-min Rain = 0
KST3 132015Z 35007KT 14/M02 A2987 RMK A01 T01441022  RH  032%=      5-min Rain = 0
KST3 132016Z 35005KT 14/M02 A2987 RMK A01 T01431024  RH  031%=      5-min Rain = 0
KST3 132017Z 02004KT 14/M02 A2986 RMK A01 T01431023  RH  032%=      5-min Rain = 0
KST3 132018Z 01009KT 14/M02 A2986 RMK A01 T01431021  RH  032%=      5-min Rain = 0
KST3 132019Z 36008KT 14/M02 A2986 RMK A01 T01431022  RH  032%=      5-min Rain = 0
KST3 132020Z 01007KT 14/M02 A2987 RMK A01 T01431022  RH  032%=      5-min Rain = 0
KST3 132021Z 01006KT 14/M02 A2986 RMK A01 T01411024  RH  032%=      5-min Rain = 0
KST3 132022Z 01004KT 14/M02 A2986 RMK A01 T01401024  RH  032%=      5-min Rain = 0
KST3 132023Z 36005KT 14/M02 A2987 RMK A01 T01401023  RH  032%=      5-min Rain = 0
KST3 132024Z 36008KT 14/M02 A2987 RMK A01 T01411022  RH  032%=      5-min Rain = 0
KST3 132025Z 35008KT 14/M02 A2987 RMK A01 T01411024  RH  032%=      5-min Rain = 0
KST3 132026Z 35008KT 14/M03 A2987 RMK A01 T01411026  RH  031%=      5-min Rain = 0
KST3 132027Z 34007KT 14/M03 A2987 RMK A01 T01411028  RH  031%=      5-min Rain = 0
KST3 132028Z 35008KT 14/M03 A2987 RMK A01 T01411027  RH  031%=      5-min Rain = 0
KST3 132029Z 36005KT 14/M03 A2986 RMK A01 T01421028  RH  031%=      5-min Rain = 0
KST3 132030Z 35005KT 14/M03 A2986 RMK A01 T01421025  RH  031%=      5-min Rain = 0
KST3 132031Z 35005KT 15/M02 A2986 RMK A01 T01451024  RH  031%=      5-min Rain = 0
KST3 132032Z 36004KT 15/M03 A2986 RMK A01 T01451026  RH  031%=      5-min Rain = 0
KST3 132033Z 34004KT 14/M03 A2986 RMK A01 T01441029  RH  030%=      5-min Rain = 0
KST3 132034Z 34008KT 14/M03 A2986 RMK A01 T01441028  RH  030%=      5-min Rain = 0
KST3 132035Z 34006KT 15/M03 A2986 RMK A01 T01451028  RH  030%=      5-min Rain = 0
KST3 132036Z 34007KT 15/M03 A2987 RMK A01 T01461029  RH  030%=      5-min Rain = 0
KST3 132037Z 34007KT 15/M03 A2987 RMK A01 T01471029  RH  029%=      5-min Rain = 0
KST3 132038Z 34005KT 15/M03 A2987 RMK A01 T01461030  RH  029%=      5-min Rain = 0
KST3 132039Z 35005KT 15/M03 A2987 RMK A01 T01451029  RH  030%=      5-min Rain = 0
KST3 132040Z 35004KT 14/M03 A2986 RMK A01 T01441029  RH  030%=      5-min Rain = 0
KST3 132041Z 36007KT 14/M03 A2986 RMK A01 T01441029  RH  030%=      5-min Rain = 0
KST3 132042Z 00008KT 14/M03 A2986 RMK A01 T01441029  RH  030%=      5-min Rain = 0
KST3 132043Z 02006KT 15/M03 A2986 RMK A01 T01451030  RH  030%=      5-min Rain = 0
KST3 132044Z 02005KT 15/M03 A2986 RMK A01 T01451031  RH  029%=      5-min Rain = 0
KST3 132045Z 03005KT 15/M03 A2986 RMK A01 T01451030  RH  030%=      5-min Rain = 0
KST3 132046Z 01006KT 15/M03 A2986 RMK A01 T01461029  RH  030%=      5-min Rain = 0
KST3 132047Z 01007KT 15/M03 A2986 RMK A01 T01471031  RH  029%=      5-min Rain = 0
KST3 132048Z 02009KT 15/M03 A2986 RMK A01 T01461029  RH  030%=      5-min Rain = 0
KST3 132049Z 01007KT 15/M03 A2986 RMK A01 T01451028  RH  030%=      5-min Rain = 0
KST3 132050Z 01006KT 15/M03 A2986 RMK A01 T01461027  RH  030%=      5-min Rain = 0
KST3 132051Z 00005KT 15/M03 A2986 RMK A01 T01471030  RH  029%=      5-min Rain = 0
KST3 132052Z 35006KT 15/M03 A2986 RMK A01 T01461030  RH  029%=      5-min Rain = 0
KST3 132053Z 01005KT 15/M03 A2986 RMK A01 T01461031  RH  029%=      5-min Rain = 0
KST3 132054Z 01004KT 15/M03 A2986 RMK A01 T01451034  RH  029%=      5-min Rain = 0
KST3 132055Z 02004KT 15/M03 A2986 RMK A01 T01451031  RH  029%=      5-min Rain = 0
KST3 132056Z 01003KT 15/M03 A2986 RMK A01 T01451031  RH  029%=      5-min Rain = 0
KST3 132057Z 02004KT 15/M03 A2986 RMK A01 T01451032  RH  029%=      5-min Rain = 0
KST3 132058Z 34003KT 15/M03 A2986 RMK A01 T01451029  RH  030%=      5-min Rain = 0
KST3 132059Z 35005KT 15/M03 A2986 RMK A01 T01461026  RH  030%=      5-min Rain = 0
KST3 132100Z 33006KT 15/M03 A2986 RMK A01 T01481027  RH  030%=      5-min Rain = 0
KST3 132101Z 35005KT 15/M03 A2986 RMK A01 T01481028  RH  030%=      5-min Rain = 0
KST3 132102Z 35004KT 15/M03 A2986 RMK A01 T01471029  RH  029%=      5-min Rain = 0
KST3 132103Z 35006KT 15/M03 A2986 RMK A01 T01471028  RH  030%=      5-min Rain = 0
KST3 132104Z 34007KT 15/M03 A2986 RMK A01 T01471027  RH  030%=      5-min Rain = 0
KST3 132105Z 35006KT 15/M03 A2986 RMK A01 T01481029  RH  029%=      5-min Rain = 0
KST3 132106Z 35006KT 15/M03 A2986 RMK A01 T01481030  RH  029%=      5-min Rain = 0
KST3 132107Z 35007KT 15/M03 A2986 RMK A01 T01481028  RH  030%=      5-min Rain = 0
KST3 132108Z 36005KT 15/M03 A2987 RMK A01 T01471029  RH  030%=      5-min Rain = 0
KST3 132109Z 02005KT 15/M03 A2987 RMK A01 T01461028  RH  030%=      5-min Rain = 0
KST3 132110Z 02004KT 15/M03 A2987 RMK A01 T01461028  RH  030%=      5-min Rain = 0
KST3 132111Z 35003KT 15/M03 A2986 RMK A01 T01451028  RH  030%=      5-min Rain = 0
KST3 132112Z 35004KT 15/M03 A2986 RMK A01 T01461028  RH  030%=      5-min Rain = 0
KST3 132113Z 34006KT 15/M03 A2986 RMK A01 T01481026  RH  030%=      5-min Rain = 0
KST3 132114Z 34006KT 15/M03 A2986 RMK A01 T01491029  RH  029%=      5-min Rain = 0
KST3 132115Z 36005KT 15/M03 A2986 RMK A01 T01491028  RH  029%=      5-min Rain = 0
KST3 132116Z 02005KT 15/M03 A2986 RMK A01 T01491027  RH  030%=      5-min Rain = 0
KST3 132117Z 03005KT 15/M03 A2986 RMK A01 T01501025  RH  030%=      5-min Rain = 0
KST3 132118Z 03004KT 15/M03 A2986 RMK A01 T01491028  RH  029%=      5-min Rain = 0
KST3 132119Z 05004KT 15/M03 A2986 RMK A01 T01481026  RH  030%=      5-min Rain = 0
KST3 132120Z 03004KT 15/M03 A2986 RMK A01 T01481027  RH  030%=      5-min Rain = 0
KST3 132121Z 02003KT 15/M03 A2985 RMK A01 T01481027  RH  030%=      5-min Rain = 0
KST3 132122Z 03003KT 15/M03 A2985 RMK A01 T01481028  RH  030%=      5-min Rain = 0
KST3 132123Z 05005KT 15/M03 A2985 RMK A01 T01481027  RH  030%=      5-min Rain = 0
KST3 132124Z 04004KT 15/M03 A2985 RMK A01 T01471026  RH  030%=      5-min Rain = 0
KST3 132125Z 02005KT 15/M03 A2985 RMK A01 T01471027  RH  030%=      5-min Rain = 0
KST3 132126Z 01006KT 15/M03 A2985 RMK A01 T01471028  RH  030%=      5-min Rain = 0
KST3 132127Z 00007KT 15/M03 A2985 RMK A01 T01461030  RH  029%=      5-min Rain = 0
KST3 132128Z 01007KT 15/M03 A2986 RMK A01 T01461031  RH  029%=      5-min Rain = 0
KST3 132129Z 01007KT 15/M03 A2986 RMK A01 T01461029  RH  030%=      5-min Rain = 0
KST3 132130Z 01007KT 15/M03 A2986 RMK A01 T01461029  RH  030%=      5-min Rain = 0
KST3 132131Z 36005KT 15/M03 A2986 RMK A01 T01461028  RH  030%=      5-min Rain = 0
KST3 132132Z 35004KT 15/M03 A2986 RMK A01 T01461029  RH  030%=      5-min Rain = 0
KST3 132133Z 34004KT 15/M03 A2986 RMK A01 T01461028  RH  030%=      5-min Rain = 0
KST3 132134Z 35004KT 15/M03 A2986 RMK A01 T01471029  RH  029%=      5-min Rain = 0
KST3 132135Z 03005KT 15/M03 A2986 RMK A01 T01471027  RH  030%=      5-min Rain = 0
KST3 132136Z 03005KT 15/M03 A2986 RMK A01 T01481027  RH  030%=      5-min Rain = 0
KST3 132137Z 03004KT 15/M03 A2986 RMK A01 T01481027  RH  030%=      5-min Rain = 0
KST3 132138Z 07003KT 15/M03 A2986 RMK A01 T01481026  RH  030%=      5-min Rain = 0
KST3 132139Z 07002KT 15/M03 A2986 RMK A01 T01481026  RH  030%=      5-min Rain = 0
KST3 132140Z 07001KT 15/M03 A2986 RMK A01 T01481026  RH  030%=      5-min Rain = 0
KST3 132141Z 06001KT 15/M03 A2986 RMK A01 T01481027  RH  030%=      5-min Rain = 0
KST3 132142Z 08002KT 15/M03 A2986 RMK A01 T01481028  RH  030%=      5-min Rain = 0
KST3 132143Z 07004KT 15/M03 A2986 RMK A01 T01481028  RH  029%=      5-min Rain = 0
KST3 132144Z 04007KT 15/M03 A2986 RMK A01 T01481027  RH  030%=      5-min Rain = 0
KST3 132145Z 04006KT 15/M03 A2986 RMK A01 T01471027  RH  030%=      5-min Rain = 0
KST3 132146Z 04006KT 15/M03 A2986 RMK A01 T01471029  RH  029%=      5-min Rain = 0
KST3 132147Z 04005KT 15/M03 A2986 RMK A01 T01471028  RH  030%=      5-min Rain = 0
KST3 132148Z 04005KT 15/M03 A2986 RMK A01 T01481027  RH  030%=      5-min Rain = 0
KST3 132149Z 04005KT 15/M03 A2986 RMK A01 T01481028  RH  030%=      5-min Rain = 0
KST3 132150Z 04005KT 15/M03 A2986 RMK A01 T01481029  RH  029%=      5-min Rain = 0
KST3 132151Z 02005KT 15/M03 A2986 RMK A01 T01481029  RH  029%=      5-min Rain = 0
KST3 132152Z 02003KT 15/M03 A2986 RMK A01 T01471029  RH  029%=      5-min Rain = 0
KST3 132153Z 03002KT 15/M03 A2986 RMK A01 T01471029  RH  030%=      5-min Rain = 0
KST3 132154Z 05004KT 15/M03 A2986 RMK A01 T01471029  RH  030%=      5-min Rain = 0
KST3 132155Z 05003KT 15/M03 A2986 RMK A01 T01471030  RH  029%=      5-min Rain = 0
KST3 132156Z 01003KT 15/M03 A2986 RMK A01 T01471031  RH  029%=      5-min Rain = 0
KST3 132157Z 02002KT 15/M03 A2986 RMK A01 T01471030  RH  029%=      5-min Rain = 0
KST3 132158Z 04002KT 15/M03 A2986 RMK A01 T01471029  RH  030%=      5-min Rain = 0
KST3 132159Z 02002KT 15/M03 A2986 RMK A01 T01471028  RH  030%=      5-min Rain = 0
KST3 132200Z 02004KT 15/M03 A2986 RMK A01 T01481029  RH  029%=      5-min Rain = 0
KST3 132201Z 02004KT 15/M03 A2986 RMK A01 T01481031  RH  029%=      5-min Rain = 0
KST3 132202Z 03003KT 15/M03 A2986 RMK A01 T01471033  RH  029%=      5-min Rain = 0
KST3 132203Z 03004KT 15/M03 A2986 RMK A01 T01471030  RH  029%=      5-min Rain = 0
KST3 132204Z 02004KT 15/M03 A2986 RMK A01 T01471029  RH  029%=      5-min Rain = 0
KST3 132205Z 02003KT 15/M03 A2986 RMK A01 T01471029  RH  030%=      5-min Rain = 0
KST3 132206Z 02002KT 15/M03 A2986 RMK A01 T01481026  RH  030%=      5-min Rain = 0
KST3 132207Z 02002KT 15/M03 A2986 RMK A01 T01481027  RH  030%=      5-min Rain = 0
KST3 132208Z 03002KT 15/M03 A2986 RMK A01 T01481029  RH  029%=      5-min Rain = 0
KST3 132209Z 04002KT 15/M03 A2986 RMK A01 T01481029  RH  029%=      5-min Rain = 0
KST3 132210Z 02003KT 15/M03 A2986 RMK A01 T01471029  RH  029%=      5-min Rain = 0
KST3 132211Z 04004KT 15/M03 A2986 RMK A01 T01481027  RH  030%=      5-min Rain = 0
KST3 132212Z 05003KT 15/M03 A2987 RMK A01 T01471029  RH  030%=      5-min Rain = 0
KST3 132213Z 02003KT 15/M03 A2987 RMK A01 T01471029  RH  030%=      5-min Rain = 0
KST3 132214Z 02003KT 15/M03 A2987 RMK A01 T01471028  RH  030%=      5-min Rain = 0
KST3 132215Z 01003KT 15/M03 A2987 RMK A01 T01471030  RH  029%=      5-min Rain = 0
KST3 132216Z 01003KT 15/M03 A2987 RMK A01 T01461030  RH  029%=      5-min Rain = 0
KST3 132217Z 01004KT 15/M03 A2987 RMK A01 T01461029  RH  030%=      5-min Rain = 0
KST3 132218Z 00003KT 15/M03 A2987 RMK A01 T01451031  RH  029%=      5-min Rain = 0
KST3 132219Z 01002KT 15/M03 A2987 RMK A01 T01451032  RH  029%=      5-min Rain = 0
KST3 132220Z 02002KT 15/M03 A2987 RMK A01 T01451032  RH  029%=      5-min Rain = 0
KST3 132221Z 02002KT 15/M03 A2987 RMK A01 T01451030  RH  030%=      5-min Rain = 0
KST3 132222Z 02002KT 15/M03 A2987 RMK A01 T01461029  RH  030%=      5-min Rain = 0
KST3 132223Z 02002KT 15/M03 A2988 RMK A01 T01461029  RH  030%=      5-min Rain = 0
KST3 132224Z 02002KT 15/M03 A2988 RMK A01 T01461029  RH  030%=      5-min Rain = 0
KST3 132225Z 01002KT 15/M03 A2988 RMK A01 T01461029  RH  030%=      5-min Rain = 0
KST3 132226Z 00001KT 15/M03 A2988 RMK A01 T01461030  RH  030%=      5-min Rain = 0
KST3 132227Z 36001KT 15/M03 A2988 RMK A01 T01461031  RH  029%=      5-min Rain = 0
KST3 132228Z 35001KT 15/M03 A2988 RMK A01 T01461031  RH  029%=      5-min Rain = 0
KST3 132229Z 35001KT 15/M03 A2988 RMK A01 T01461031  RH  029%=      5-min Rain = 0
KST3 132230Z 35001KT 15/M03 A2988 RMK A01 T01471029  RH  030%=      5-min Rain = 0
KST3 132231Z 00000KT 15/M03 A2988 RMK A01 T01471032  RH  029%=      5-min Rain = 0
KST3 132232Z 00001KT 15/M03 A2988 RMK A01 T01471032  RH  029%=      5-min Rain = 0
KST3 132233Z 00001KT 15/M03 A2988 RMK A01 T01461031  RH  029%=      5-min Rain = 0
KST3 132234Z 00002KT 15/M03 A2988 RMK A01 T01461030  RH  029%=      5-min Rain = 0
KST3 132235Z 00002KT 15/M03 A2988 RMK A01 T01461030  RH  030%=      5-min Rain = 0
KST3 132236Z 00002KT 15/M03 A2988 RMK A01 T01451029  RH  030%=      5-min Rain = 0
KST3 132237Z 00002KT 15/M03 A2988 RMK A01 T01451029  RH  030%=      5-min Rain = 0
KST3 132238Z 00002KT 14/M03 A2988 RMK A01 T01441028  RH  030%=      5-min Rain = 0
KST3 132239Z 00002KT 14/M03 A2988 RMK A01 T01441028  RH  030%=      5-min Rain = 0
KST3 132240Z 00001KT 14/M03 A2988 RMK A01 T01441027  RH  031%=      5-min Rain = 0
KST3 132241Z 00001KT 14/M03 A2987 RMK A01 T01441027  RH  031%=      5-min Rain = 0
KST3 132242Z 00000KT 14/M03 A2987 RMK A01 T01441027  RH  031%=      5-min Rain = 0
KST3 132243Z 00000KT 14/M03 A2987 RMK A01 T01441028  RH  030%=      5-min Rain = 0
KST3 132244Z 00000KT 14/M03 A2987 RMK A01 T01441028  RH  030%=      5-min Rain = 0
KST3 132245Z 01000KT 14/M03 A2987 RMK A01 T01441028  RH  030%=      5-min Rain = 0
KST3 132246Z 00000KT 14/M03 A2986 RMK A01 T01441027  RH  031%=      5-min Rain = 0
KST3 132247Z 00000KT 14/M03 A2986 RMK A01 T01441027  RH  031%=      5-min Rain = 0
KST3 132248Z 00000KT 14/M03 A2986 RMK A01 T01441029  RH  030%=      5-min Rain = 0
KST3 132249Z 00000KT 14/M03 A2986 RMK A01 T01441027  RH  031%=      5-min Rain = 0
KST3 132250Z 00000KT 14/M03 A2986 RMK A01 T01431027  RH  031%=      5-min Rain = 0
KST3 132251Z 00000KT 14/M03 A2986 RMK A01 T01431027  RH  031%=      5-min Rain = 0
KST3 132252Z 00000KT 14/M03 A2986 RMK A01 T01431027  RH  031%=      5-min Rain = 0
KST3 132253Z 00000KT 14/M03 A2986 RMK A01 T01431027  RH  031%=      5-min Rain = 0
KST3 132254Z 01000KT 14/M03 A2986 RMK A01 T01431028  RH  031%=      5-min Rain = 0
KST3 132255Z 01000KT 14/M03 A2986 RMK A01 T01431027  RH  031%=      5-min Rain = 0
KST3 132256Z 01001KT 14/M03 A2986 RMK A01 T01421027  RH  031%=      5-min Rain = 0
KST3 132257Z 01000KT 14/M03 A2987 RMK A01 T01421029  RH  031%=      5-min Rain = 0
KST3 132258Z 01000KT 14/M03 A2987 RMK A01 T01411031  RH  030%=      5-min Rain = 0
KST3 132259Z 01000KT 14/M03 A2987 RMK A01 T01411031  RH  030%=      5-min Rain = 0
KST3 132300Z 01000KT 14/M03 A2987 RMK A01 T01411031  RH  030%=      5-min Rain = 0
KST3 132301Z 01001KT 14/M03 A2987 RMK A01 T01411030  RH  031%=      5-min Rain = 0
KST3 132302Z 01000KT 14/M03 A2987 RMK A01 T01401029  RH  031%=      5-min Rain = 0
KST3 132303Z 01001KT 14/M03 A2987 RMK A01 T01391029  RH  031%=      5-min Rain = 0
KST3 132304Z 01000KT 14/M03 A2987 RMK A01 T01391029  RH  031%=      5-min Rain = 0
KST3 132305Z 01000KT 14/M03 A2987 RMK A01 T01381029  RH  031%=      5-min Rain = 0
KST3 132306Z 01000KT 14/M03 A2987 RMK A01 T01371030  RH  031%=      5-min Rain = 0
KST3 132307Z 00000KT 14/M03 A2987 RMK A01 T01371030  RH  031%=      5-min Rain = 0
KST3 132308Z 01000KT 14/M03 A2987 RMK A01 T01371030  RH  031%=      5-min Rain = 0
KST3 132309Z 01001KT 14/M03 A2987 RMK A01 T01371030  RH  031%=      5-min Rain = 0
KST3 132310Z 01001KT 14/M03 A2987 RMK A01 T01371031  RH  031%=      5-min Rain = 0
KST3 132311Z 00001KT 14/M03 A2988 RMK A01 T01361031  RH  031%=      5-min Rain = 0
KST3 132312Z 34002KT 14/M03 A2988 RMK A01 T01361030  RH  032%=      5-min Rain = 0
KST3 132313Z 34002KT 14/M03 A2988 RMK A01 T01351029  RH  032%=      5-min Rain = 0
KST3 132314Z 34002KT 13/M03 A2988 RMK A01 T01341029  RH  032%=      5-min Rain = 0
KST3 132315Z 34002KT 13/M03 A2988 RMK A01 T01341028  RH  032%=      5-min Rain = 0
KST3 132316Z 34002KT 13/M03 A2988 RMK A01 T01331028  RH  033%=      5-min Rain = 0
KST3 132317Z 34002KT 13/M03 A2988 RMK A01 T01321028  RH  033%=      5-min Rain = 0
KST3 132318Z 34002KT 13/M03 A2988 RMK A01 T01311029  RH  033%=      5-min Rain = 0
KST3 132319Z 34002KT 13/M03 A2988 RMK A01 T01311029  RH  033%=      5-min Rain = 0
KST3 132320Z 35002KT 13/M03 A2988 RMK A01 T01311029  RH  033%=      5-min Rain = 0
KST3 132321Z 36002KT 13/M03 A2988 RMK A01 T01301029  RH  033%=      5-min Rain = 0
KST3 132322Z 00002KT 13/M03 A2988 RMK A01 T01291029  RH  033%=      5-min Rain = 0
KST3 132323Z 00002KT 13/M03 A2988 RMK A01 T01271029  RH  034%=      5-min Rain = 0
KST3 132324Z 00003KT 13/M03 A2988 RMK A01 T01261029  RH  034%=      5-min Rain = 0
KST3 132325Z 00003KT 12/M03 A2988 RMK A01 T01241030  RH  034%=      5-min Rain = 0
KST3 132326Z 00003KT 12/M03 A2988 RMK A01 T01221030  RH  034%=      5-min Rain = 0
KST3 132327Z 00003KT 12/M03 A2988 RMK A01 T01201031  RH  035%=      5-min Rain = 0
KST3 132328Z 00003KT 12/M03 A2988 RMK A01 T01201030  RH  035%=      5-min Rain = 0
KST3 132329Z 00003KT 12/M03 A2988 RMK A01 T01201031  RH  035%=      5-min Rain = 0
KST3 132330Z 00003KT 12/M03 A2988 RMK A01 T01201031  RH  035%=      5-min Rain = 0
KST3 132331Z 00003KT 12/M03 A2988 RMK A01 T01191031  RH  035%=      5-min Rain = 0
KST3 132332Z 00003KT 12/M03 A2988 RMK A01 T01181031  RH  035%=      5-min Rain = 0
KST3 132333Z 00003KT 12/M03 A2988 RMK A01 T01161031  RH  036%=      5-min Rain = 0
KST3 132334Z 00003KT 12/M03 A2988 RMK A01 T01151031  RH  036%=      5-min Rain = 0
KST3 132335Z 00003KT 12/M03 A2988 RMK A01 T01151031  RH  036%=      5-min Rain = 0
KST3 132336Z 00003KT 11/M03 A2988 RMK A01 T01141032  RH  036%=      5-min Rain = 0
KST3 132337Z 00003KT 11/M03 A2988 RMK A01 T01141032  RH  036%=      5-min Rain = 0
KST3 132338Z 00002KT 11/M03 A2988 RMK A01 T01131032  RH  036%=      5-min Rain = 0
KST3 132339Z 00002KT 11/M03 A2988 RMK A01 T01131032  RH  036%=      5-min Rain = 0
KST3 132340Z 01002KT 11/M03 A2988 RMK A01 T01131032  RH  036%=      5-min Rain = 0
KST3 132341Z 01002KT 11/M03 A2988 RMK A01 T01131033  RH  036%=      5-min Rain = 0
KST3 132342Z 01002KT 11/M03 A2988 RMK A01 T01141032  RH  036%=      5-min Rain = 0
KST3 132343Z 01002KT 12/M03 A2988 RMK A01 T01151033  RH  036%=      5-min Rain = 0
KST3 132344Z 01001KT 12/M03 A2988 RMK A01 T01151032  RH  035%=      5-min Rain = 0
KST3 132345Z 01002KT 12/M03 A2988 RMK A01 T01161032  RH  035%=      5-min Rain = 0
KST3 132346Z 01002KT 12/M03 A2988 RMK A01 T01161032  RH  035%=      5-min Rain = 0
KST3 132347Z 02002KT 12/M03 A2988 RMK A01 T01161033  RH  035%=      5-min Rain = 0
KST3 132348Z 02002KT 12/M03 A2988 RMK A01 T01171033  RH  035%=      5-min Rain = 0
KST3 132349Z 01002KT 12/M03 A2988 RMK A01 T01181033  RH  035%=      5-min Rain = 0
KST3 132350Z 02002KT 12/M03 A2988 RMK A01 T01181032  RH  035%=      5-min Rain = 0
KST3 132351Z 01002KT 12/M03 A2988 RMK A01 T01181033  RH  035%=      5-min Rain = 0
KST3 132352Z 01003KT 12/M03 A2988 RMK A01 T01181033  RH  035%=      5-min Rain = 0
KST3 132353Z 00003KT 12/M03 A2988 RMK A01 T01171033  RH  035%=      5-min Rain = 0
KST3 132354Z 00003KT 12/M03 A2989 RMK A01 T01171033  RH  035%=      5-min Rain = 0
KST3 132355Z 00003KT 12/M03 A2989 RMK A01 T01161033  RH  035%=      5-min Rain = 0
KST3 132356Z 00003KT 12/M03 A2989 RMK A01 T01151034  RH  035%=      5-min Rain = 0
KST3 132357Z 01003KT 12/M03 A2989 RMK A01 T01151034  RH  035%=      5-min Rain = 0
KST3 132358Z 02003KT 11/M03 A2988 RMK A01 T01141034  RH  035%=      5-min Rain = 0
KST3 132359Z 02003KT 11/M03 A2988 RMK A01 T01131034  RH  036%=      5-min Rain = 0
KST3 140000Z 02003KT 11/M03 A2988 RMK A01 T01121034  RH  036%=      5-min Rain = 0
KST3 140001Z 02003KT 11/M03 A2988 RMK A01 T01111034  RH  036%=      5-min Rain = 0
KST3 140002Z 02004KT 11/M03 A2988 RMK A01 T01101034  RH  036%=      5-min Rain = 0
KST3 140003Z 02004KT 11/M04 A2988 RMK A01 T01091035  RH  036%=      5-min Rain = 0
KST3 140004Z 02004KT 11/M04 A2988 RMK A01 T01081035  RH  037%=      5-min Rain = 0
KST3 140005Z 02004KT 11/M04 A2988 RMK A01 T01081035  RH  037%=      5-min Rain = 0
KST3 140006Z 02005KT 11/M03 A2988 RMK A01 T01071034  RH  037%=      5-min Rain = 0
KST3 140007Z 02005KT 11/M04 A2988 RMK A01 T01071035  RH  037%=      5-min Rain = 0
KST3 140008Z 02005KT 11/M04 A2988 RMK A01 T01051035  RH  037%=      5-min Rain = 0
KST3 140009Z 02005KT 10/M04 A2988 RMK A01 T01041035  RH  037%=      5-min Rain = 0
KST3 140010Z 02005KT 10/M04 A2988 RMK A01 T01031035  RH  038%=      5-min Rain = 0
KST3 140011Z 02005KT 10/M04 A2988 RMK A01 T01021035  RH  038%=      5-min Rain = 0
KST3 140012Z 02005KT 10/M04 A2988 RMK A01 T01011035  RH  038%=      5-min Rain = 0
KST3 140013Z 02005KT 10/M04 A2987 RMK A01 T00991035  RH  039%=      5-min Rain = 0
KST3 140014Z 02005KT 10/M04 A2988 RMK A01 T00981035  RH  039%=      5-min Rain = 0
KST3 140015Z 02005KT 10/M04 A2988 RMK A01 T00971035  RH  039%=      5-min Rain = 0
KST3 140016Z 02004KT 10/M04 A2988 RMK A01 T00951035  RH  040%=      5-min Rain = 0
KST3 140017Z 02004KT 09/M04 A2988 RMK A01 T00941035  RH  040%=      5-min Rain = 0
KST3 140018Z 02004KT 09/M04 A2988 RMK A01 T00931035  RH  040%=      5-min Rain = 0
KST3 140019Z 02004KT 09/M04 A2988 RMK A01 T00921035  RH  040%=      5-min Rain = 0
KST3 140020Z 03004KT 09/M04 A2988 RMK A01 T00921035  RH  041%=      5-min Rain = 0
KST3 140021Z 03004KT 09/M03 A2988 RMK A01 T00921034  RH  041%=      5-min Rain = 0
KST3 140022Z 03004KT 09/M03 A2988 RMK A01 T00911034  RH  041%=      5-min Rain = 0
KST3 140023Z 03004KT 09/M03 A2988 RMK A01 T00911034  RH  041%=      5-min Rain = 0
KST3 140024Z 02004KT 09/M03 A2988 RMK A01 T00911034  RH  041%=      5-min Rain = 0
KST3 140025Z 02004KT 09/M03 A2989 RMK A01 T00921034  RH  041%=      5-min Rain = 0
KST3 140026Z 02004KT 09/M03 A2989 RMK A01 T00921034  RH  041%=      5-min Rain = 0
KST3 140027Z 02004KT 09/M03 A2989 RMK A01 T00921034  RH  041%=      5-min Rain = 0
KST3 140028Z 01004KT 09/M03 A2989 RMK A01 T00921034  RH  041%=      5-min Rain = 0
KST3 140029Z 01004KT 09/M03 A2989 RMK A01 T00921034  RH  041%=      5-min Rain = 0
KST3 140030Z 01004KT 09/M03 A2989 RMK A01 T00931034  RH  041%=      5-min Rain = 0
KST3 140031Z 00004KT 09/M03 A299 RMK A01 T00931034  RH  041%=      5-min Rain = 0
KST3 140032Z 01005KT 09/M04 A299 RMK A01 T00921035  RH  041%=      5-min Rain = 0
KST3 140033Z 01004KT 09/M04 A299 RMK A01 T00921035  RH  041%=      5-min Rain = 0
KST3 140034Z 01005KT 09/M04 A2989 RMK A01 T00921035  RH  041%=      5-min Rain = 0
KST3 140035Z 01005KT 09/M03 A299 RMK A01 T00911034  RH  041%=      5-min Rain = 0
KST3 140036Z 01005KT 09/M03 A299 RMK A01 T00901034  RH  041%=      5-min Rain = 0
KST3 140037Z 01005KT 09/M03 A2989 RMK A01 T00891034  RH  042%=      5-min Rain = 0
KST3 140038Z 01005KT 09/M03 A2989 RMK A01 T00891034  RH  042%=      5-min Rain = 0
KST3 140039Z 02006KT 09/M03 A2989 RMK A01 T00891034  RH  042%=      5-min Rain = 0
KST3 140040Z 02006KT 09/M03 A2989 RMK A01 T00881034  RH  042%=      5-min Rain = 0
KST3 140041Z 02006KT 09/M03 A2989 RMK A01 T00871034  RH  042%=      5-min Rain = 0
KST3 140042Z 01006KT 09/M03 A2989 RMK A01 T00851034  RH  043%=      5-min Rain = 0
KST3 140043Z 01006KT 08/M03 A299 RMK A01 T00831034  RH  044%=      5-min Rain = 0
KST3 140044Z 01007KT 08/M03 A299 RMK A01 T00801034  RH  044%=      5-min Rain = 0
KST3 140045Z 02006KT 08/M03 A299 RMK A01 T00781033  RH  045%=      5-min Rain = 0
KST3 140046Z 02006KT 08/M03 A299 RMK A01 T00761033  RH  046%=      5-min Rain = 0
KST3 140047Z 02006KT 08/M03 A299 RMK A01 T00751033  RH  046%=      5-min Rain = 0
KST3 140048Z 02006KT 07/M03 A299 RMK A01 T00741032  RH  047%=      5-min Rain = 0
KST3 140049Z 02005KT 07/M03 A299 RMK A01 T00731033  RH  047%=      5-min Rain = 0
KST3 140050Z 02006KT 07/M03 A299 RMK A01 T00741032  RH  047%=      5-min Rain = 0
KST3 140051Z 02005KT 07/M03 A299 RMK A01 T00741032  RH  047%=      5-min Rain = 0
KST3 140052Z 02005KT 08/M03 A299 RMK A01 T00751032  RH  047%=      5-min Rain = 0
KST3 140053Z 02005KT 08/M03 A299 RMK A01 T00761032  RH  046%=      5-min Rain = 0
KST3 140054Z 02005KT 08/M03 A2991 RMK A01 T00761032  RH  046%=      5-min Rain = 0
KST3 140055Z 02005KT 08/M03 A2991 RMK A01 T00771032  RH  046%=      5-min Rain = 0
KST3 140056Z 02005KT 08/M03 A2991 RMK A01 T00781032  RH  046%=      5-min Rain = 0
KST3 140057Z 02005KT 08/M03 A2991 RMK A01 T00791032  RH  045%=      5-min Rain = 0
KST3 140058Z 02004KT 08/M03 A2991 RMK A01 T00791032  RH  045%=      5-min Rain = 0
KST3 140059Z 02004KT 08/M03 A2991 RMK A01 T00801032  RH  045%=      5-min Rain = 0
KST3 140100Z 01004KT 08/M03 A2991 RMK A01 T00811032  RH  045%=      5-min Rain = 0
KST3 140101Z 01004KT 08/M03 A2991 RMK A01 T00811032  RH  045%=      5-min Rain = 0
KST3 140102Z 01005KT 08/M03 A2992 RMK A01 T00821032  RH  045%=      5-min Rain = 0
KST3 140103Z 01005KT 08/M03 A2992 RMK A01 T00821032  RH  044%=      5-min Rain = 0
KST3 140104Z 01004KT 08/M03 A2992 RMK A01 T00831032  RH  044%=      5-min Rain = 0
KST3 140105Z 01005KT 08/M03 A2992 RMK A01 T00831032  RH  044%=      5-min Rain = 0
KST3 140106Z 01005KT 08/M03 A2992 RMK A01 T00821032  RH  044%=      5-min Rain = 0
KST3 140107Z 02005KT 08/M03 A2992 RMK A01 T00831032  RH  044%=      5-min Rain = 0
KST3 140108Z 02004KT 08/M03 A2992 RMK A01 T00831032  RH  044%=      5-min Rain = 0
KST3 140109Z 02005KT 08/M03 A2992 RMK A01 T00821032  RH  044%=      5-min Rain = 0
KST3 140110Z 02005KT 08/M03 A2992 RMK A01 T00821032  RH  044%=      5-min Rain = 0
KST3 140111Z 02004KT 08/M03 A2992 RMK A01 T00831032  RH  044%=      5-min Rain = 0
KST3 140112Z 02005KT 08/M03 A2992 RMK A01 T00831032  RH  044%=      5-min Rain = 0
KST3 140113Z 02005KT 08/M03 A2992 RMK A01 T00821032  RH  044%=      5-min Rain = 0
KST3 140114Z 02004KT 08/M03 A2992 RMK A01 T00821032  RH  044%=      5-min Rain = 0
KST3 140115Z 02005KT 08/M03 A2992 RMK A01 T00821032  RH  044%=      5-min Rain = 0
KST3 140116Z 01005KT 08/M03 A2992 RMK A01 T00821032  RH  044%=      5-min Rain = 0
KST3 140117Z 01004KT 08/M03 A2992 RMK A01 T00821032  RH  044%=      5-min Rain = 0
KST3 140118Z 01005KT 08/M03 A2993 RMK A01 T00811032  RH  044%=      5-min Rain = 0
KST3 140119Z 01005KT 08/M03 A2993 RMK A01 T00811033  RH  044%=      5-min Rain = 0
KST3 140120Z 01005KT 08/M03 A2993 RMK A01 T00821033  RH  044%=      5-min Rain = 0
KST3 140121Z 01005KT 08/M03 A2993 RMK A01 T00821033  RH  044%=      5-min Rain = 0
KST3 140122Z 01005KT 08/M03 A2993 RMK A01 T00831033  RH  044%=      5-min Rain = 0
KST3 140123Z 01005KT 08/M03 A2993 RMK A01 T00831033  RH  044%=      5-min Rain = 0
KST3 140124Z 01005KT 08/M03 A2993 RMK A01 T00831033  RH  044%=      5-min Rain = 0
KST3 140125Z 01005KT 08/M03 A2993 RMK A01 T00841033  RH  044%=      5-min Rain = 0
KST3 140126Z 01005KT 08/M03 A2993 RMK A01 T00841033  RH  044%=      5-min Rain = 0
KST3 140127Z 01005KT 09/M03 A2993 RMK A01 T00851033  RH  043%=      5-min Rain = 0
KST3 140128Z 01005KT 09/M03 A2993 RMK A01 T00851033  RH  043%=      5-min Rain = 0
KST3 140129Z 01004KT 09/M03 A2993 RMK A01 T00861033  RH  043%=      5-min Rain = 0
KST3 140130Z 01005KT 09/M03 A2993 RMK A01 T00861033  RH  043%=      5-min Rain = 0
KST3 140131Z 01004KT 09/M03 A2993 RMK A01 T00861033  RH  043%=      5-min Rain = 0
KST3 140132Z 01005KT 09/M03 A2993 RMK A01 T00851033  RH  043%=      5-min Rain = 0
KST3 140133Z 02005KT 08/M03 A2993 RMK A01 T00841033  RH  043%=      5-min Rain = 0
KST3 140134Z 02005KT 08/M03 A2993 RMK A01 T00841033  RH  044%=      5-min Rain = 0
KST3 140135Z 02005KT 08/M03 A2993 RMK A01 T00831033  RH  044%=      5-min Rain = 0
KST3 140136Z 02005KT 08/M03 A2993 RMK A01 T00821033  RH  044%=      5-min Rain = 0
KST3 140137Z 02005KT 08/M03 A2993 RMK A01 T00811033  RH  044%=      5-min Rain = 0
KST3 140138Z 02005KT 08/M03 A2993 RMK A01 T00811033  RH  044%=      5-min Rain = 0
KST3 140139Z 02005KT 08/M03 A2992 RMK A01 T00801033  RH  045%=      5-min Rain = 0
KST3 140140Z 02004KT 08/M03 A2992 RMK A01 T00791033  RH  045%=      5-min Rain = 0
KST3 140141Z 02005KT 08/M03 A2992 RMK A01 T00791033  RH  045%=      5-min Rain = 0
KST3 140142Z 03004KT 08/M03 A2992 RMK A01 T00791033  RH  045%=      5-min Rain = 0
KST3 140143Z 03005KT 08/M03 A2992 RMK A01 T00791032  RH  045%=      5-min Rain = 0
KST3 140144Z 03005KT 08/M03 A2992 RMK A01 T00781032  RH  045%=      5-min Rain = 0
KST3 140145Z 03005KT 08/M03 A2992 RMK A01 T00781033  RH  045%=      5-min Rain = 0
KST3 140146Z 03005KT 08/M03 A2992 RMK A01 T00791033  RH  045%=      5-min Rain = 0
KST3 140147Z 03005KT 08/M03 A2992 RMK A01 T00781033  RH  045%=      5-min Rain = 0
KST3 140148Z 02006KT 08/M03 A2992 RMK A01 T00781033  RH  045%=      5-min Rain = 0
KST3 140149Z 02006KT 08/M03 A2992 RMK A01 T00771033  RH  045%=      5-min Rain = 0
KST3 140150Z 02006KT 08/M03 A2992 RMK A01 T00771033  RH  045%=      5-min Rain = 0
KST3 140151Z 02005KT 08/M03 A2992 RMK A01 T00761034  RH  046%=      5-min Rain = 0
KST3 140152Z 02006KT 08/M03 A2992 RMK A01 T00751034  RH  046%=      5-min Rain = 0
KST3 140153Z 02005KT 07/M03 A2992 RMK A01 T00741034  RH  046%=      5-min Rain = 0
KST3 140154Z 02006KT 07/M03 A2992 RMK A01 T00721034  RH  047%=      5-min Rain = 0
KST3 140155Z 02005KT 07/M03 A2992 RMK A01 T00721034  RH  047%=      5-min Rain = 0
KST3 140156Z 02005KT 07/M03 A2992 RMK A01 T00711034  RH  047%=      5-min Rain = 0
KST3 140157Z 02005KT 07/M03 A2993 RMK A01 T00711034  RH  047%=      5-min Rain = 0
KST3 140158Z 02005KT 07/M03 A2993 RMK A01 T00721034  RH  047%=      5-min Rain = 0
KST3 140159Z 02005KT 07/M03 A2993 RMK A01 T00721034  RH  047%=      5-min Rain = 0
KST3 140200Z 01005KT 07/M03 A2993 RMK A01 T00711034  RH  047%=      5-min Rain = 0
KST3 140201Z 02005KT 07/M03 A2993 RMK A01 T00721034  RH  047%=      5-min Rain = 0
KST3 140202Z 02005KT 07/M03 A2993 RMK A01 T00721034  RH  047%=      5-min Rain = 0
KST3 140203Z 01005KT 07/M03 A2993 RMK A01 T00731034  RH  046%=      5-min Rain = 0
KST3 140204Z 02005KT 07/M04 A2993 RMK A01 T00731035  RH  046%=      5-min Rain = 0
KST3 140205Z 02006KT 07/M03 A2993 RMK A01 T00741034  RH  046%=      5-min Rain = 0
KST3 140206Z 02004KT 07/M04 A2993 RMK A01 T00731035  RH  046%=      5-min Rain = 0
KST3 140207Z 02005KT 07/M04 A2993 RMK A01 T00731035  RH  046%=      5-min Rain = 0
KST3 140208Z 02005KT 07/M04 A2993 RMK A01 T00731035  RH  046%=      5-min Rain = 0
KST3 140209Z 02005KT 07/M04 A2993 RMK A01 T00731035  RH  046%=      5-min Rain = 0
KST3 140210Z 02005KT 07/M04 A2993 RMK A01 T00721035  RH  046%=      5-min Rain = 0
KST3 140211Z 02005KT 07/M04 A2993 RMK A01 T00721035  RH  046%=      5-min Rain = 0
KST3 140212Z 02005KT 07/M04 A2993 RMK A01 T00721035  RH  046%=      5-min Rain = 0
KST3 140213Z 01006KT 07/M04 A2993 RMK A01 T00711036  RH  047%=      5-min Rain = 0
KST3 140214Z 01007KT 07/M04 A2993 RMK A01 T00701035  RH  047%=      5-min Rain = 0
KST3 140215Z 01007KT 07/M04 A2993 RMK A01 T00681036  RH  048%=      5-min Rain = 0
KST3 140216Z 01007KT 06/M04 A2993 RMK A01 T00631036  RH  049%=      5-min Rain = 0
KST3 140217Z 01007KT 06/M04 A2993 RMK A01 T00601035  RH  051%=      5-min Rain = 0
KST3 140218Z 01008KT 06/M04 A2993 RMK A01 T00561035  RH  052%=      5-min Rain = 0
KST3 140219Z 01008KT 05/M04 A2993 RMK A01 T00541035  RH  053%=      5-min Rain = 0
KST3 140220Z 01009KT 05/M03 A2993 RMK A01 T00531034  RH  053%=      5-min Rain = 0
KST3 140221Z 01009KT 05/M03 A2993 RMK A01 T00531033  RH  054%=      5-min Rain = 0
KST3 140222Z 01009KT 05/M03 A2994 RMK A01 T00531033  RH  054%=      5-min Rain = 0
KST3 140223Z 01009KT 05/M03 A2994 RMK A01 T00531032  RH  054%=      5-min Rain = 0
KST3 140224Z 01008KT 05/M03 A2994 RMK A01 T00541031  RH  054%=      5-min Rain = 0
KST3 140225Z 01007KT 05/M03 A2994 RMK A01 T00541031  RH  054%=      5-min Rain = 0
KST3 140226Z 01007KT 05/M03 A2994 RMK A01 T00541032  RH  054%=      5-min Rain = 0
KST3 140227Z 00008KT 05/M03 A2994 RMK A01 T00531032  RH  054%=      5-min Rain = 0
KST3 140228Z 36007KT 05/M03 A2994 RMK A01 T00531033  RH  054%=      5-min Rain = 0
KST3 140229Z 36008KT 05/M03 A2994 RMK A01 T00521033  RH  054%=      5-min Rain = 0
KST3 140230Z 00008KT 05/M03 A2994 RMK A01 T00521033  RH  054%=      5-min Rain = 0
KST3 140231Z 00008KT 05/M03 A2994 RMK A01 T00531033  RH  054%=      5-min Rain = 0
KST3 140232Z 01008KT 05/M03 A2994 RMK A01 T00531033  RH  054%=      5-min Rain = 0
KST3 140233Z 01008KT 05/M03 A2994 RMK A01 T00511034  RH  054%=      5-min Rain = 0
KST3 140234Z 01008KT 05/M03 A2994 RMK A01 T00501034  RH  055%=      5-min Rain = 0
KST3 140235Z 01008KT 05/M03 A2994 RMK A01 T00481034  RH  055%=      5-min Rain = 0
KST3 140236Z 01008KT 05/M04 A2994 RMK A01 T00451035  RH  056%=      5-min Rain = 0
KST3 140237Z 02008KT 04/M03 A2994 RMK A01 T00441034  RH  057%=      5-min Rain = 0
KST3 140238Z 02008KT 04/M03 A2994 RMK A01 T00441034  RH  057%=      5-min Rain = 0
KST3 140239Z 02008KT 04/M03 A2994 RMK A01 T00441034  RH  057%=      5-min Rain = 0
KST3 140240Z 02008KT 05/M03 A2994 RMK A01 T00451034  RH  057%=      5-min Rain = 0
KST3 140241Z 02008KT 05/M03 A2994 RMK A01 T00451033  RH  057%=      5-min Rain = 0
KST3 140242Z 02008KT 05/M03 A2994 RMK A01 T00451033  RH  057%=      5-min Rain = 0
KST3 140243Z 02008KT 05/M03 A2994 RMK A01 T00461033  RH  057%=      5-min Rain = 0
KST3 140244Z 02009KT 05/M03 A2994 RMK A01 T00451033  RH  057%=      5-min Rain = 0
KST3 140245Z 02009KT 05/M03 A2994 RMK A01 T00461032  RH  057%=      5-min Rain = 0
KST3 140246Z 02009KT 05/M03 A2994 RMK A01 T00451032  RH  057%=      5-min Rain = 0
KST3 140247Z 02010KT 05/M03 A2995 RMK A01 T00451032  RH  057%=      5-min Rain = 0
KST3 140248Z 01010KT 05/M03 A2995 RMK A01 T00471032  RH  056%=      5-min Rain = 0
KST3 140249Z 01009KT 05/M03 A2995 RMK A01 T00491032  RH  056%=      5-min Rain = 0
KST3 140250Z 01008KT 05/M03 A2995 RMK A01 T00501032  RH  055%=      5-min Rain = 0
KST3 140251Z 01008KT 05/M03 A2995 RMK A01 T00491033  RH  055%=      5-min Rain = 0
KST3 140252Z 01008KT 05/M03 A2995 RMK A01 T00501033  RH  055%=      5-min Rain = 0
KST3 140253Z 01008KT 05/M03 A2995 RMK A01 T00501033  RH  055%=      5-min Rain = 0
KST3 140254Z 02008KT 05/M03 A2995 RMK A01 T00491033  RH  055%=      5-min Rain = 0
KST3 140255Z 02008KT 05/M03 A2995 RMK A01 T00491033  RH  055%=      5-min Rain = 0
KST3 140256Z 02008KT 05/M03 A2995 RMK A01 T00491033  RH  055%=      5-min Rain = 0
KST3 140257Z 02008KT 05/M03 A2995 RMK A01 T00491033  RH  055%=      5-min Rain = 0
KST3 140258Z 02008KT 05/M03 A2995 RMK A01 T00481033  RH  056%=      5-min Rain = 0
KST3 140259Z 02008KT 05/M03 A2995 RMK A01 T00481032  RH  056%=      5-min Rain = 0
KST3 140300Z 01008KT 05/M03 A2995 RMK A01 T00471032  RH  056%=      5-min Rain = 0
KST3 140301Z 01008KT 05/M03 A2996 RMK A01 T00471032  RH  056%=      5-min Rain = 0
KST3 140302Z 00008KT 05/M03 A2996 RMK A01 T00471032  RH  056%=      5-min Rain = 0
KST3 140303Z 00008KT 05/M03 A2996 RMK A01 T00471033  RH  056%=      5-min Rain = 0
KST3 140304Z 00008KT 05/M03 A2996 RMK A01 T00471033  RH  056%=      5-min Rain = 0
KST3 140305Z 01008KT 05/M03 A2996 RMK A01 T00481033  RH  056%=      5-min Rain = 0
KST3 140306Z 01008KT 05/M03 A2996 RMK A01 T00481032  RH  056%=      5-min Rain = 0
KST3 140307Z 01008KT 05/M03 A2996 RMK A01 T00481032  RH  056%=      5-min Rain = 0
KST3 140308Z 01008KT 05/M03 A2996 RMK A01 T00471032  RH  056%=      5-min Rain = 0
KST3 140309Z 01007KT 05/M03 A2996 RMK A01 T00461032  RH  057%=      5-min Rain = 0
KST3 140310Z 00007KT 05/M03 A2996 RMK A01 T00461032  RH  057%=      5-min Rain = 0
KST3 140311Z 01007KT 05/M03 A2996 RMK A01 T00461032  RH  057%=      5-min Rain = 0
KST3 140312Z 01008KT 05/M03 A2996 RMK A01 T00451033  RH  057%=      5-min Rain = 0
KST3 140313Z 00008KT 04/M03 A2996 RMK A01 T00441033  RH  057%=      5-min Rain = 0
KST3 140314Z 00007KT 04/M03 A2997 RMK A01 T00431033  RH  058%=      5-min Rain = 0
KST3 140315Z 00008KT 04/M03 A2997 RMK A01 T00421033  RH  058%=      5-min Rain = 0
KST3 140316Z 00008KT 04/M03 A2997 RMK A01 T00421033  RH  058%=      5-min Rain = 0
KST3 140317Z 36008KT 04/M03 A2997 RMK A01 T00431033  RH  058%=      5-min Rain = 0
KST3 140318Z 00008KT 05/M03 A2997 RMK A01 T00451033  RH  057%=      5-min Rain = 0
KST3 140319Z 00008KT 05/M03 A2997 RMK A01 T00471033  RH  056%=      5-min Rain = 0
KST3 140320Z 00008KT 05/M03 A2997 RMK A01 T00491033  RH  055%=      5-min Rain = 0
KST3 140321Z 00009KT 05/M03 A2997 RMK A01 T00491033  RH  055%=      5-min Rain = 0
KST3 140322Z 00009KT 05/M03 A2997 RMK A01 T00471033  RH  056%=      5-min Rain = 0
KST3 140323Z 00008KT 05/M03 A2997 RMK A01 T00451033  RH  057%=      5-min Rain = 0
KST3 140324Z 00009KT 04/M03 A2997 RMK A01 T00441032  RH  058%=      5-min Rain = 0
KST3 140325Z 01008KT 04/M03 A2997 RMK A01 T00431032  RH  058%=      5-min Rain = 0
KST3 140326Z 01009KT 04/M03 A2997 RMK A01 T00431032  RH  058%=      5-min Rain = 0
KST3 140327Z 01009KT 04/M03 A2997 RMK A01 T00441032  RH  058%=      5-min Rain = 0
KST3 140328Z 01009KT 05/M03 A2998 RMK A01 T00451032  RH  057%=      5-min Rain = 0
KST3 140329Z 01009KT 05/M03 A2997 RMK A01 T00471031  RH  057%=      5-min Rain = 0
KST3 140330Z 01009KT 05/M03 A2997 RMK A01 T00471031  RH  057%=      5-min Rain = 0
KST3 140331Z 01009KT 05/M03 A2997 RMK A01 T00481030  RH  057%=      5-min Rain = 0
KST3 140332Z 01009KT 05/M03 A2997 RMK A01 T00491030  RH  057%=      5-min Rain = 0
KST3 140333Z 01009KT 05/M03 A2997 RMK A01 T00501030  RH  056%=      5-min Rain = 0
KST3 140334Z 02009KT 05/M03 A2997 RMK A01 T00511029  RH  056%=      5-min Rain = 0
KST3 140335Z 01009KT 05/M03 A2997 RMK A01 T00521029  RH  056%=      5-min Rain = 0
KST3 140336Z 00009KT 05/M03 A2997 RMK A01 T00521029  RH  056%=      5-min Rain = 0
KST3 140337Z 00009KT 05/M03 A2997 RMK A01 T00531029  RH  056%=      5-min Rain = 0
KST3 140338Z 36009KT 05/M03 A2997 RMK A01 T00531029  RH  056%=      5-min Rain = 0
KST3 140339Z 36009KT 05/M03 A2997 RMK A01 T00531030  RH  055%=      5-min Rain = 0
KST3 140340Z 36009KT 05/M03 A2997 RMK A01 T00521031  RH  055%=      5-min Rain = 0
KST3 140341Z 36009KT 05/M03 A2997 RMK A01 T00521032  RH  055%=      5-min Rain = 0
KST3 140342Z 35008KT 05/M03 A2997 RMK A01 T00521033  RH  054%=      5-min Rain = 0
KST3 140343Z 35008KT 05/M03 A2997 RMK A01 T00501033  RH  055%=      5-min Rain = 0
KST3 140344Z 35008KT 05/M03 A2997 RMK A01 T00491033  RH  055%=      5-min Rain = 0
KST3 140345Z 35008KT 05/M03 A2998 RMK A01 T00481033  RH  055%=      5-min Rain = 0
KST3 140346Z 35008KT 05/M03 A2998 RMK A01 T00481033  RH  055%=      5-min Rain = 0
KST3 140347Z 36008KT 05/M03 A2998 RMK A01 T00491033  RH  055%=      5-min Rain = 0
KST3 140348Z 35009KT 05/M03 A2998 RMK A01 T00491033  RH  055%=      5-min Rain = 0
KST3 140349Z 36009KT 05/M03 A2998 RMK A01 T00491033  RH  055%=      5-min Rain = 0
KST3 140350Z 36009KT 05/M03 A2998 RMK A01 T00501033  RH  055%=      5-min Rain = 0
KST3 140351Z 36009KT 05/M03 A2998 RMK A01 T00501033  RH  055%=      5-min Rain = 0
KST3 140352Z 36009KT 05/M03 A2997 RMK A01 T00511033  RH  055%=      5-min Rain = 0
KST3 140353Z 36009KT 05/M03 A2997 RMK A01 T00511033  RH  054%=      5-min Rain = 0
KST3 140354Z 36010KT 05/M03 A2998 RMK A01 T00521034  RH  054%=      5-min Rain = 0
KST3 140355Z 36009KT 05/M03 A2998 RMK A01 T00521034  RH  054%=      5-min Rain = 0
KST3 140356Z 36009KT 05/M03 A2997 RMK A01 T00531033  RH  054%=      5-min Rain = 0
KST3 140357Z 36009KT 05/M03 A2997 RMK A01 T00531033  RH  054%=      5-min Rain = 0
KST3 140358Z 36010KT 05/M03 A2998 RMK A01 T00531033  RH  054%=      5-min Rain = 0
KST3 140359Z 00010KT 05/M03 A2998 RMK A01 T00521033  RH  054%=      5-min Rain = 0
KST3 140400Z 00009KT 05/M03 A2997 RMK A01 T00521033  RH  054%=      5-min Rain = 0
KST3 140401Z 00009KT 05/M03 A2997 RMK A01 T00521032  RH  055%=      5-min Rain = 0
KST3 140402Z 00009KT 05/M03 A2997 RMK A01 T00501032  RH  055%=      5-min Rain = 0
KST3 140403Z 00009KT 05/M03 A2998 RMK A01 T00491032  RH  056%=      5-min Rain = 0
KST3 140404Z 00010KT 05/M03 A2998 RMK A01 T00491031  RH  056%=      5-min Rain = 0
KST3 140405Z 36010KT 05/M03 A2998 RMK A01 T00491031  RH  056%=      5-min Rain = 0
KST3 140406Z 36010KT 05/M03 A2998 RMK A01 T00501030  RH  056%=      5-min Rain = 0
KST3 140407Z 00011KT 05/M03 A2998 RMK A01 T00511030  RH  056%=      5-min Rain = 0
KST3 140408Z 36010KT 05/M03 A2998 RMK A01 T00521030  RH  055%=      5-min Rain = 0
KST3 140409Z 36010KT 05/M03 A2998 RMK A01 T00531029  RH  055%=      5-min Rain = 0
KST3 140410Z 00009KT 05/M03 A2998 RMK A01 T00531029  RH  056%=      5-min Rain = 0
KST3 140411Z 36009KT 05/M03 A2998 RMK A01 T00511029  RH  056%=      5-min Rain = 0
KST3 140412Z 00009KT 05/M03 A2998 RMK A01 T00501029  RH  057%=      5-min Rain = 0
KST3 140413Z 36009KT 05/M03 A2998 RMK A01 T00501029  RH  057%=      5-min Rain = 0
KST3 140414Z 36009KT 05/M03 A2998 RMK A01 T00501029  RH  057%=      5-min Rain = 0
KST3 140415Z 36009KT 05/M03 A2998 RMK A01 T00501030  RH  057%=      5-min Rain = 0
KST3 140416Z 36009KT 05/M03 A2998 RMK A01 T00501029  RH  056%=      5-min Rain = 0
KST3 140417Z 00009KT 05/M03 A2998 RMK A01 T00501030  RH  056%=      5-min Rain = 0
KST3 140418Z 36009KT 05/M03 A2998 RMK A01 T00501029  RH  057%=      5-min Rain = 0
KST3 140419Z 36008KT 05/M03 A2998 RMK A01 T00501029  RH  057%=      5-min Rain = 0
KST3 140420Z 36008KT 05/M03 A2998 RMK A01 T00501029  RH  057%=      5-min Rain = 0
KST3 140421Z 36008KT 05/M03 A2998 RMK A01 T00491029  RH  057%=      5-min Rain = 0
KST3 140422Z 00009KT 05/M03 A2998 RMK A01 T00491029  RH  057%=      5-min Rain = 0
KST3 140423Z 00009KT 05/M03 A2998 RMK A01 T00481029  RH  058%=      5-min Rain = 0
KST3 140424Z 00009KT 05/M03 A2998 RMK A01 T00481028  RH  058%=      5-min Rain = 0
KST3 140425Z 36009KT 05/M03 A2998 RMK A01 T00471028  RH  058%=      5-min Rain = 0
KST3 140426Z 36009KT 05/M03 A2998 RMK A01 T00471028  RH  058%=      5-min Rain = 0
KST3 140427Z 36009KT 05/M03 A2998 RMK A01 T00471028  RH  058%=      5-min Rain = 0
KST3 140428Z 36009KT 05/M03 A2998 RMK A01 T00471028  RH  058%=      5-min Rain = 0
KST3 140429Z 00009KT 05/M03 A2998 RMK A01 T00481028  RH  058%=      5-min Rain = 0
KST3 140430Z 01010KT 05/M03 A2998 RMK A01 T00491028  RH  058%=      5-min Rain = 0
KST3 140431Z 01011KT 05/M03 A2998 RMK A01 T00491027  RH  058%=      5-min Rain = 0
KST3 140432Z 01011KT 05/M03 A2998 RMK A01 T00481027  RH  058%=      5-min Rain = 0
KST3 140433Z 01011KT 05/M03 A2998 RMK A01 T00481027  RH  058%=      5-min Rain = 0
KST3 140434Z 01012KT 05/M03 A2998 RMK A01 T00481027  RH  058%=      5-min Rain = 0
KST3 140435Z 01011KT 05/M03 A2998 RMK A01 T00501026  RH  058%=      5-min Rain = 0
KST3 140436Z 01011KT 05/M03 A2998 RMK A01 T00511026  RH  058%=      5-min Rain = 0
KST3 140437Z 01010KT 05/M03 A2998 RMK A01 T00511026  RH  057%=      5-min Rain = 0
KST3 140438Z 01011KT 05/M03 A2998 RMK A01 T00511027  RH  057%=      5-min Rain = 0
KST3 140439Z 01012KT 05/M03 A2997 RMK A01 T00521028  RH  057%=      5-min Rain = 0
KST3 140440Z 01011KT 05/M03 A2997 RMK A01 T00521030  RH  056%=      5-min Rain = 0
KST3 140441Z 01011KT 05/M03 A2997 RMK A01 T00521031  RH  055%=      5-min Rain = 0
KST3 140442Z 01011KT 05/M03 A2997 RMK A01 T00521031  RH  055%=      5-min Rain = 0
KST3 140443Z 01012KT 05/M03 A2997 RMK A01 T00521031  RH  055%=      5-min Rain = 0
KST3 140444Z 01011KT 05/M03 A2997 RMK A01 T00521032  RH  055%=      5-min Rain = 0
KST3 140445Z 01011KT 05/M03 A2997 RMK A01 T00531032  RH  054%=      5-min Rain = 0
KST3 140446Z 01011KT 05/M03 A2997 RMK A01 T00531033  RH  054%=      5-min Rain = 0
KST3 140447Z 01011KT 05/M03 A2997 RMK A01 T00531032  RH  054%=      5-min Rain = 0
KST3 140448Z 01011KT 05/M03 A2997 RMK A01 T00531033  RH  054%=      5-min Rain = 0
KST3 140449Z 01011KT 05/M03 A2997 RMK A01 T00541032  RH  054%=      5-min Rain = 0
KST3 140450Z 01011KT 05/M03 A2998 RMK A01 T00541032  RH  054%=      5-min Rain = 0
KST3 140451Z 01011KT 05/M03 A2998 RMK A01 T00541033  RH  054%=      5-min Rain = 0
KST3 140452Z 01011KT 05/M03 A2998 RMK A01 T00541033  RH  054%=      5-min Rain = 0
KST3 140453Z 01011KT 05/M03 A2998 RMK A01 T00541033  RH  053%=      5-min Rain = 0
KST3 140454Z 01011KT 05/M03 A2998 RMK A01 T00541034  RH  053%=      5-min Rain = 0
KST3 140455Z 01010KT 05/M03 A2998 RMK A01 T00541034  RH  053%=      5-min Rain = 0
KST3 140456Z 01011KT 05/M03 A2998 RMK A01 T00541034  RH  053%=      5-min Rain = 0
KST3 140457Z 01010KT 05/M04 A2998 RMK A01 T00541035  RH  053%=      5-min Rain = 0
KST3 140458Z 01011KT 06/M04 A2998 RMK A01 T00551035  RH  052%=      5-min Rain = 0
KST3 140459Z 01011KT 06/M04 A2998 RMK A01 T00551036  RH  052%=      5-min Rain = 0
KST3 140500Z 01011KT 06/M04 A2997 RMK A01 T00551036  RH  052%=      5-min Rain = 0
KST3 140501Z 01011KT 06/M04 A2997 RMK A01 T00551036  RH  052%=      5-min Rain = 0
KST3 140502Z 01011KT 06/M04 A2997 RMK A01 T00551035  RH  052%=      5-min Rain = 0
KST3 140503Z 01010KT 06/M04 A2997 RMK A01 T00551035  RH  052%=      5-min Rain = 0
KST3 140504Z 01010KT 05/M04 A2997 RMK A01 T00541035  RH  053%=      5-min Rain = 0
KST3 140505Z 01011KT 05/M04 A2997 RMK A01 T00541035  RH  053%=      5-min Rain = 0
KST3 140506Z 01011KT 05/M04 A2997 RMK A01 T00541035  RH  053%=      5-min Rain = 0
KST3 140507Z 01011KT 05/M04 A2997 RMK A01 T00541035  RH  053%=      5-min Rain = 0
KST3 140508Z 01011KT 05/M04 A2997 RMK A01 T00541036  RH  053%=      5-min Rain = 0
KST3 140509Z 01011KT 05/M04 A2997 RMK A01 T00541036  RH  052%=      5-min Rain = 0
KST3 140510Z 01011KT 06/M04 A2997 RMK A01 T00551036  RH  052%=      5-min Rain = 0
KST3 140511Z 01011KT 05/M04 A2997 RMK A01 T00541035  RH  052%=      5-min Rain = 0
KST3 140512Z 01012KT 05/M04 A2997 RMK A01 T00541035  RH  053%=      5-min Rain = 0
KST3 140513Z 02011KT 05/M04 A2997 RMK A01 T00541036  RH  052%=      5-min Rain = 0
KST3 140514Z 01011KT 06/M04 A2997 RMK A01 T00551035  RH  052%=      5-min Rain = 0
KST3 140515Z 01012KT 06/M04 A2997 RMK A01 T00551036  RH  052%=      5-min Rain = 0
KST3 140516Z 01011KT 06/M04 A2997 RMK A01 T00561036  RH  051%=      5-min Rain = 0
KST3 140517Z 01011KT 06/M04 A2997 RMK A01 T00561037  RH  051%=      5-min Rain = 0
KST3 140518Z 01011KT 06/M04 A2997 RMK A01 T00561036  RH  051%=      5-min Rain = 0
KST3 140519Z 01011KT 06/M04 A2996 RMK A01 T00561036  RH  051%=      5-min Rain = 0
KST3 140520Z 01010KT 06/M04 A2997 RMK A01 T00571036  RH  051%=      5-min Rain = 0
KST3 140521Z 01010KT 06/M04 A2997 RMK A01 T00571036  RH  051%=      5-min Rain = 0
KST3 140522Z 01010KT 06/M04 A2997 RMK A01 T00571036  RH  051%=      5-min Rain = 0
KST3 140523Z 01011KT 06/M04 A2997 RMK A01 T00571035  RH  052%=      5-min Rain = 0
KST3 140524Z 01010KT 06/M04 A2997 RMK A01 T00571035  RH  052%=      5-min Rain = 0
KST3 140525Z 01010KT 06/M03 A2997 RMK A01 T00561034  RH  052%=      5-min Rain = 0
KST3 140526Z 01010KT 06/M03 A2997 RMK A01 T00561034  RH  052%=      5-min Rain = 0
KST3 140527Z 01011KT 06/M03 A2997 RMK A01 T00551034  RH  053%=      5-min Rain = 0
KST3 140528Z 01010KT 06/M03 A2997 RMK A01 T00551034  RH  053%=      5-min Rain = 0
KST3 140529Z 01010KT 05/M03 A2997 RMK A01 T00541034  RH  053%=      5-min Rain = 0
KST3 140530Z 01011KT 05/M03 A2997 RMK A01 T00541034  RH  053%=      5-min Rain = 0
KST3 140531Z 01010KT 05/M03 A2997 RMK A01 T00531034  RH  053%=      5-min Rain = 0
KST3 140532Z 01011KT 05/M03 A2997 RMK A01 T00521034  RH  054%=      5-min Rain = 0
KST3 140533Z 01010KT 05/M03 A2997 RMK A01 T00521034  RH  054%=      5-min Rain = 0
KST3 140534Z 01010KT 05/M04 A2997 RMK A01 T00511035  RH  054%=      5-min Rain = 0
KST3 140535Z 01011KT 05/M04 A2997 RMK A01 T00521035  RH  053%=      5-min Rain = 0
KST3 140536Z 01010KT 05/M04 A2997 RMK A01 T00511036  RH  053%=      5-min Rain = 0
KST3 140537Z 01011KT 05/M04 A2997 RMK A01 T00511037  RH  053%=      5-min Rain = 0
KST3 140538Z 01009KT 05/M04 A2997 RMK A01 T00501037  RH  053%=      5-min Rain = 0
KST3 140539Z 01010KT 05/M04 A2997 RMK A01 T00491038  RH  053%=      5-min Rain = 0
KST3 140540Z 01010KT 05/M04 A2996 RMK A01 T00491038  RH  054%=      5-min Rain = 0
KST3 140541Z 01011KT 05/M04 A2996 RMK A01 T00481038  RH  054%=      5-min Rain = 0
KST3 140542Z 01010KT 05/M04 A2996 RMK A01 T00471038  RH  054%=      5-min Rain = 0
KST3 140543Z 01011KT 05/M04 A2996 RMK A01 T00471038  RH  054%=      5-min Rain = 0
KST3 140544Z 01012KT 05/M04 A2996 RMK A01 T00461038  RH  055%=      5-min Rain = 0
KST3 140545Z 01012KT 05/M04 A2996 RMK A01 T00461038  RH  055%=      5-min Rain = 0
KST3 140546Z 01011KT 05/M04 A2996 RMK A01 T00451038  RH  055%=      5-min Rain = 0
KST3 140547Z 01011KT 05/M04 A2996 RMK A01 T00451038  RH  055%=      5-min Rain = 0
KST3 140548Z 01011KT 05/M04 A2996 RMK A01 T00451039  RH  054%=      5-min Rain = 0
KST3 140549Z 01010KT 05/M04 A2996 RMK A01 T00461039  RH  054%=      5-min Rain = 0
KST3 140550Z 01010KT 05/M04 A2996 RMK A01 T00461039  RH  054%=      5-min Rain = 0
KST3 140551Z 01010KT 05/M04 A2996 RMK A01 T00461039  RH  054%=      5-min Rain = 0
KST3 140552Z 01010KT 05/M04 A2996 RMK A01 T00451038  RH  055%=      5-min Rain = 0
KST3 140553Z 01009KT 04/M04 A2996 RMK A01 T00441038  RH  055%=      5-min Rain = 0
KST3 140554Z 01009KT 04/M04 A2996 RMK A01 T00441037  RH  055%=      5-min Rain = 0
KST3 140555Z 02009KT 04/M04 A2996 RMK A01 T00441037  RH  055%=      5-min Rain = 0
KST3 140556Z 02009KT 04/M04 A2996 RMK A01 T00441038  RH  055%=      5-min Rain = 0
KST3 140557Z 01009KT 05/M04 A2996 RMK A01 T00451038  RH  055%=      5-min Rain = 0
KST3 140558Z 01009KT 05/M04 A2996 RMK A01 T00451037  RH  055%=      5-min Rain = 0
KST3 140559Z 01009KT 05/M04 A2996 RMK A01 T00451038  RH  055%=      5-min Rain = 0

Page generated in 0.0646 seconds.